M I D A S
Marine Information and Data Acquisition System
Tripno 2092 of the Zeeleeuw from 2011-01-27 07:49:23 to 2011-01-27 16:19:56
Back to CruiseResearch ActivitiesStationsMapUnderway DataData graphs

EquipmentUnitsComment
TimeDGPSUTC
LatitudeDGPSDM.mWGS84
LongitudeDGPSDM.mWGS84
TemperatureSBE03/SBE38deg celciusITS90
ConductivitySBE21S/mITS90
SalinitySBE21 Practical Salinity Units
ChlorophylAChelsea fluorimeterg/lCalibrated in Aceton
Missing or incorrect values are displayed as -999
Sea surface data collected by the RV Zeeleeuw from 2011-01-27 07:50:34 to 2011-01-27 16:27:18
                                                                                    Next 1000 lines
Time Latitude Longitude Temperature Conductivity Salinity ChlorophylA
2011-01-27 07:50:43 51°13.661 2°55.956 12.3529 0.075463 0.424479 -0.304087
2011-01-27 07:50:48 51°13.662 2°55.952 12.3394 0.075463 0.424472 -0.304087
2011-01-27 07:50:53 51°13.663 2°55.947 12.3311 0.075463 0.424479 -0.304087
2011-01-27 07:50:59 51°13.665 2°55.94 12.314 0.075463 0.424486 -0.304087
2011-01-27 07:51:04 51°13.666 2°55.933 12.3683 0.075463 0.424493 -0.304087
2011-01-27 07:51:09 51°13.667 2°55.925 12.382 0.075463 0.424493 -0.304087
2011-01-27 07:51:14 51°13.669 2°55.917 12.3561 0.075463 0.424493 -0.304087
2011-01-27 07:51:19 51°13.672 2°55.909 12.3509 0.075359 0.423901 -0.338911
2011-01-27 07:51:24 51°13.674 2°55.899 12.3571 0.075359 0.423901 -0.269263
2011-01-27 07:51:30 51°13.677 2°55.887 12.3612 0.075359 0.423908 -0.304087
2011-01-27 07:51:34 51°13.68 2°55.879 12.3835 0.075463 0.424515 -0.338911
2011-01-27 07:51:39 51°13.682 2°55.869 12.3943 0.075463 0.424515 -0.304087
2011-01-27 07:51:44 51°13.685 2°55.858 12.4209 0.075463 0.424515 -0.304087
2011-01-27 07:51:50 51°13.688 2°55.846 12.4477 0.075359 0.423908 -0.338911
2011-01-27 07:51:54 51°13.69 2°55.837 12.4347 0.075359 0.423908 -0.338911
2011-01-27 07:51:59 51°13.692 2°55.827 12.4201 0.075463 0.424522 -0.338911
2011-01-27 07:52:04 51°13.695 2°55.818 12.4143 0.075359 0.423916 -0.304087
2011-01-27 07:52:09 51°13.697 2°55.807 12.3861 0.075359 0.423916 -0.304087
2011-01-27 07:52:15 51°13.699 2°55.795 12.3895 0.075463 0.424529 -0.304087
2011-01-27 07:52:19 51°13.701 2°55.787 12.3913 0.075359 0.423916 -0.304087
2011-01-27 07:52:24 51°13.704 2°55.777 12.4044 0.075359 0.423923 -0.304087
2011-01-27 07:52:29 51°13.707 2°55.767 12.4024 0.075359 0.42393 -0.304087
2011-01-27 07:52:34 51°13.71 2°55.758 12.3999 0.075359 0.423937 -0.338911
2011-01-27 07:52:39 51°13.713 2°55.749 12.4037 0.075359 0.423944 -0.338911
2011-01-27 07:52:44 51°13.716 2°55.74 12.403 0.075359 0.423944 -0.338911
2011-01-27 07:52:49 51°13.72 2°55.732 12.3973 0.075359 0.423937 -0.304087
2011-01-27 07:52:54 51°13.724 2°55.724 12.4063 0.075359 0.423944 -0.338911
2011-01-27 07:52:58 51°13.728 2°55.718 12.3976 0.075359 0.423951 -0.304087
2011-01-27 07:53:02 51°13.731 2°55.713 12.394 0.075463 0.424564 -0.304087
2011-01-27 07:53:09 51°13.741 2°55.703 12.3987 0.075359 0.423965 -0.269263
2011-01-27 07:53:14 51°13.745 2°55.696 12.3989 0.075359 0.423965 -0.269263
2011-01-27 07:53:17 51°13.748 2°55.691 12.403 0.075359 0.423972 -0.304087
2011-01-27 07:53:17 51°13.748 2°55.691 12.4008 0.075359 0.423972 -0.304087
2011-01-27 07:53:17 51°13.748 2°55.691 12.4007 0.075359 0.423972 -0.304087
2011-01-27 07:53:17 51°13.748 2°55.691 12.4015 0.075359 0.423986 -0.304087
2011-01-27 07:53:39 51°13.774 2°55.666 12.4032 0.075463 0.424593 -0.304087
2011-01-27 07:53:44 51°13.782 2°55.659 12.4104 0.075463 0.424593 -0.304087
2011-01-27 07:53:50 51°13.791 2°55.654 12.4027 0.075359 0.423972 -0.269263
2011-01-27 07:53:54 51°13.797 2°55.65 12.4019 0.075359 0.423994 -0.304087
2011-01-27 07:53:59 51°13.805 2°55.645 12.4047 0.075359 0.423986 -0.304087
2011-01-27 07:54:04 51°13.814 2°55.64 12.4106 0.075359 0.424008 -0.304087
2011-01-27 07:54:10 51°13.823 2°55.636 12.4087 0.075359 0.423994 -0.338911
2011-01-27 07:54:14 51°13.83 2°55.634 12.4291 0.075359 0.423994 -0.338911
2011-01-27 07:54:19 51°13.838 2°55.631 12.4228 0.075359 0.424001 -0.269263
2011-01-27 07:54:23 51°13.845 2°55.629 12.4103 0.075359 0.424001 -0.338911
2011-01-27 07:54:29 51°13.856 2°55.627 12.4027 0.075359 0.424001 -0.304087
2011-01-27 07:54:34 51°13.863 2°55.625 12.4037 0.075359 0.423994 -0.304087
2011-01-27 07:54:39 51°13.871 2°55.624 12.4135 0.075359 0.424001 -0.338911
2011-01-27 07:54:44 51°13.879 2°55.623 12.4178 0.075359 0.424001 -0.338911
2011-01-27 07:54:49 51°13.887 2°55.623 12.4205 0.075359 0.424008 -0.304087
2011-01-27 07:54:54 51°13.895 2°55.622 12.4197 0.075359 0.424008 -0.304087
2011-01-27 07:54:59 51°13.901 2°55.621 12.4136 0.075359 0.424001 -0.304087
2011-01-27 07:55:04 51°13.908 2°55.623 12.4056 0.075359 0.424008 -0.304087
2011-01-27 07:55:05 51°13.909 2°55.623 12.4042 0.075359 0.424015 -0.304087
2011-01-27 07:55:05 51°13.909 2°55.623 12.4032 0.075359 0.424015 -0.304087
2011-01-27 07:55:19 51°13.926 2°55.63 12.4171 0.075359 0.424022 -0.338911
2011-01-27 07:55:24 51°13.932 2°55.632 12.4267 0.075359 0.424029 -0.304087
2011-01-27 07:55:29 51°13.937 2°55.634 12.4374 0.075359 0.424036 -0.304087
2011-01-27 07:55:33 51°13.941 2°55.636 12.4305 0.075359 0.424029 -0.304087
2011-01-27 07:55:38 51°13.946 2°55.638 12.4272 0.075359 0.424036 -0.304087
2011-01-27 07:55:43 51°13.95 2°55.64 12.4336 0.075359 0.424036 -0.304087
2011-01-27 07:55:48 51°13.954 2°55.641 12.4292 0.075359 0.424029 -0.304087
2011-01-27 07:55:53 51°13.957 2°55.642 12.4642 0.075359 0.424036 -0.304087
2011-01-27 07:55:58 51°13.959 2°55.644 12.3904 0.075359 0.424036 -0.304087
2011-01-27 07:56:03 51°13.96 2°55.645 12.3731 0.075359 0.424036 -0.338911
2011-01-27 07:56:07 51°13.961 2°55.646 12.3882 0.075359 0.424036 -0.304087
2011-01-27 07:56:12 51°13.962 2°55.646 12.3691 0.075359 0.424036 -0.304087
2011-01-27 07:56:17 51°13.962 2°55.647 12.3928 0.075359 0.42405 -0.269263
2011-01-27 07:56:22 51°13.963 2°55.647 12.3929 0.075359 0.424057 -0.304087
2011-01-27 07:56:27 51°13.964 2°55.647 12.4021 0.075359 0.424072 -0.338911
2011-01-27 07:56:31 51°13.964 2°55.647 12.4304 0.075359 0.424079 -0.269263
2011-01-27 07:56:36 51°13.964 2°55.646 12.4199 0.075359 0.424079 -0.269263
2011-01-27 07:56:41 51°13.964 2°55.644 12.3816 0.075359 0.424079 -0.269263
2011-01-27 07:56:46 51°13.964 2°55.641 12.2226 0.075359 0.424079 -0.304087
2011-01-27 07:56:51 51°13.964 2°55.637 12.0769 0.075359 0.424079 -0.338911
2011-01-27 07:56:56 51°13.965 2°55.632 12.1394 0.075359 0.424072 -0.304087
2011-01-27 07:57:01 51°13.965 2°55.627 12.2409 0.075359 0.424064 -0.304087
2011-01-27 07:57:05 51°13.966 2°55.622 12.1299 0.075359 0.424079 -0.304087
2011-01-27 07:57:11 51°13.968 2°55.613 12.345 0.075359 0.424079 -0.304087
2011-01-27 07:57:15 51°13.97 2°55.607 12.3146 0.075359 0.424079 -0.304087
2011-01-27 07:57:21 51°13.973 2°55.596 12.2713 0.075359 0.424086 -0.304087
2011-01-27 07:57:26 51°13.977 2°55.587 12.285 0.075359 0.4241 -0.304087
2011-01-27 07:57:31 51°13.982 2°55.577 12.2484 0.075359 0.424093 -0.304087
2011-01-27 07:57:36 51°13.987 2°55.566 12.2415 0.075359 0.424107 -0.304087
2011-01-27 07:57:41 51°13.993 2°55.555 12.2484 0.075359 0.424107 -0.304087
2011-01-27 07:57:46 51°14 2°55.544 12.1674 0.075359 0.424107 -0.338911
2011-01-27 07:57:46 51°14 2°55.544 12.1607 0.075359 0.424114 -0.304087
2011-01-27 07:57:46 51°14 2°55.544 12.12 0.075359 0.424107 -0.304087
2011-01-27 07:57:46 51°14 2°55.544 12.2372 0.075359 0.424093 -0.269263
2011-01-27 07:58:06 51°14.035 2°55.499 12.1741 0.075359 0.424093 -0.304087
2011-01-27 07:58:11 51°14.046 2°55.49 12.2838 0.075359 0.424093 -0.304087
2011-01-27 07:58:16 51°14.057 2°55.482 12.2446 0.075359 0.4241 -0.304087
2011-01-27 07:58:21 51°14.067 2°55.472 12.2045 0.075359 0.424093 -0.304087
2011-01-27 07:58:26 51°14.079 2°55.462 12.254 0.075359 0.424107 -0.304087
2011-01-27 07:58:31 51°14.09 2°55.452 12.3198 0.075359 0.424114 -0.304087
2011-01-27 07:58:36 51°14.102 2°55.442 12.2296 0.075359 0.424121 -0.304087
2011-01-27 07:58:41 51°14.114 2°55.432 12.2181 0.075359 0.424121 -0.304087
2011-01-27 07:58:46 51°14.126 2°55.421 12.2789 0.075359 0.424121 -0.304087
2011-01-27 07:58:51 51°14.138 2°55.411 12.2344 0.075359 0.424121 -0.338911
2011-01-27 07:58:56 51°14.15 2°55.4 12.2362 0.075359 0.424121 -0.304087
2011-01-27 07:59:01 51°14.162 2°55.39 12.2856 0.075359 0.424128 -0.304087
2011-01-27 07:59:06 51°14.174 2°55.379 12.295 0.075359 0.424135 -0.338911
2011-01-27 07:59:11 51°14.187 2°55.368 12.3381 0.075359 0.424135 -0.338911
2011-01-27 07:59:16 51°14.199 2°55.356 12.1226 0.075359 0.424135 -0.269263
2011-01-27 07:59:22 51°14.213 2°55.342 12.0849 0.075359 0.424135 -0.338911
2011-01-27 07:59:27 51°14.226 2°55.33 12.2297 0.075359 0.424135 -0.304087
2011-01-27 07:59:32 51°14.238 2°55.317 12.2291 0.075359 0.424142 -0.304087
2011-01-27 07:59:38 51°14.253 2°55.302 12.1807 0.075359 0.424142 -0.338911
2011-01-27 07:59:43 51°14.265 2°55.289 12.1619 0.075359 0.424142 -0.338911
2011-01-27 07:59:48 51°14.278 2°55.277 12.1908 0.075359 0.42415 -0.304087
2011-01-27 07:59:53 51°14.29 2°55.264 12.1867 0.075359 0.424142 -0.338911
2011-01-27 07:59:58 51°14.303 2°55.251 12.2246 0.075359 0.424157 -0.338911
2011-01-27 08:00:03 51°14.315 2°55.238 12.1201 0.075359 0.424142 -0.304087
2011-01-27 08:00:07 51°14.325 2°55.228 12.0789 0.075359 0.424157 -0.304087
2011-01-27 08:00:13 51°14.34 2°55.211 12.1581 0.075359 0.424157 -0.304087
2011-01-27 08:00:18 51°14.353 2°55.198 12.1783 0.075359 0.424164 -0.304087
2011-01-27 08:00:23 51°14.365 2°55.185 12.1656 0.075359 0.424164 -0.304087
2011-01-27 08:00:28 51°14.377 2°55.171 12.0228 0.075359 0.424164 -0.304087
2011-01-27 08:00:33 51°14.39 2°55.157 12.0483 0.075359 0.424164 -0.304087
2011-01-27 08:00:38 51°14.402 2°55.143 12.0859 0.075359 0.424171 -0.304087
2011-01-27 08:00:43 51°14.415 2°55.13 12.0948 0.075359 0.424171 -0.304087
2011-01-27 08:00:47 51°14.426 2°55.119 12.0533 0.075359 0.424157 -0.338911
2011-01-27 08:00:52 51°14.439 2°55.105 11.9672 0.075359 0.424171 -0.304087
2011-01-27 08:00:57 51°14.452 2°55.091 11.9893 0.075359 0.424171 -0.304087
2011-01-27 08:01:03 51°14.468 2°55.074 11.9281 0.075359 0.424157 -0.304087
2011-01-27 08:01:08 51°14.481 2°55.059 11.9784 0.075359 0.424185 -0.304087
2011-01-27 08:01:13 51°14.495 2°55.045 11.9863 0.075359 0.424185 -0.304087
2011-01-27 08:01:18 51°14.508 2°55.03 11.9623 0.075359 0.424185 -0.304087
2011-01-27 08:01:23 51°14.521 2°55.015 12.0162 0.075359 0.424192 -0.304087
2011-01-27 08:01:27 51°14.532 2°55.001 12.0099 0.075359 0.424192 -0.304087
2011-01-27 08:01:32 51°14.546 2°54.985 11.8845 0.075359 0.424192 -0.304087
2011-01-27 08:01:37 51°14.56 2°54.969 11.9268 0.075359 0.424185 -0.304087
2011-01-27 08:01:42 51°14.574 2°54.952 11.8893 0.075359 0.424185 -0.304087
2011-01-27 08:01:47 51°14.589 2°54.936 11.9386 0.075359 0.424199 -0.304087
2011-01-27 08:01:51 51°14.6 2°54.922 11.9286 0.075359 0.424185 -0.304087
2011-01-27 08:01:56 51°14.615 2°54.906 11.8662 0.075359 0.424199 -0.304087
2011-01-27 08:02:01 51°14.629 2°54.889 11.9342 0.075359 0.424213 -0.304087
2011-01-27 08:02:06 51°14.643 2°54.872 11.8392 0.075359 0.424199 -0.269263
2011-01-27 08:02:11 51°14.658 2°54.856 11.8541 0.075359 0.424199 -0.269263
2011-01-27 08:02:16 51°14.673 2°54.84 11.8399 0.075359 0.424221 -0.269263
2011-01-27 08:02:20 51°14.685 2°54.828 11.8966 0.075359 0.424206 -0.338911
2011-01-27 08:02:26 51°14.703 2°54.809 11.9201 0.075359 0.424213 -0.304087
2011-01-27 08:02:31 51°14.718 2°54.794 11.8568 0.075359 0.424206 -0.304087
2011-01-27 08:02:37 51°14.736 2°54.776 11.9074 0.075359 0.424213 -0.304087
2011-01-27 08:02:43 51°14.754 2°54.757 11.8667 0.075359 0.424213 -0.304087
2011-01-27 08:02:48 51°14.769 2°54.741 11.8594 0.075359 0.424213 -0.304087
2011-01-27 08:02:53 51°14.784 2°54.725 11.895 0.075359 0.424213 -0.269263
2011-01-27 08:02:59 51°14.801 2°54.705 11.9284 0.075359 0.424221 -0.269263
2011-01-27 08:03:03 51°14.813 2°54.691 11.7889 0.075359 0.424213 -0.304087
2011-01-27 08:03:08 51°14.828 2°54.674 11.8625 0.075359 0.424242 -0.269263
2011-01-27 08:03:14 51°14.845 2°54.653 11.869 0.075359 0.424242 -0.269263
2011-01-27 08:03:19 51°14.86 2°54.636 11.8132 0.075359 0.424242 -0.269263
2011-01-27 08:03:23 51°14.872 2°54.623 11.8156 0.075359 0.424242 -0.338911
2011-01-27 08:03:29 51°14.89 2°54.604 11.8755 0.075359 0.424221 -0.304087
2011-01-27 08:03:34 51°14.905 2°54.588 11.8988 0.075359 0.424228 -0.338911
2011-01-27 08:03:39 51°14.92 2°54.571 11.825 0.075359 0.424228 -0.304087
2011-01-27 08:03:44 51°14.935 2°54.555 11.8898 0.075359 0.424228 -0.304087
2011-01-27 08:03:49 51°14.95 2°54.539 11.8207 0.075359 0.424249 -0.304087
2011-01-27 08:03:54 51°14.965 2°54.522 11.8607 0.075359 0.424249 -0.304087
2011-01-27 08:03:59 51°14.979 2°54.505 11.8771 0.075359 0.424249 -0.338911
2011-01-27 08:04:03 51°14.991 2°54.492 11.8463 0.075359 0.424256 -0.304087
2011-01-27 08:04:08 51°15.006 2°54.476 11.8156 0.075359 0.424249 -0.304087
2011-01-27 08:04:13 51°15.02 2°54.458 11.8724 0.075359 0.424249 -0.304087
2011-01-27 08:04:18 51°15.035 2°54.442 11.847 0.075359 0.424263 -0.304087
2011-01-27 08:04:23 51°15.05 2°54.425 11.847 0.075359 0.424263 -0.304087
2011-01-27 08:04:27 51°15.061 2°54.411 11.8365 0.075359 0.424256 -0.304087
2011-01-27 08:04:32 51°15.076 2°54.394 11.8095 0.075359 0.42427 -0.304087
2011-01-27 08:04:37 51°15.091 2°54.377 11.8885 0.075359 0.424263 -0.304087
2011-01-27 08:04:42 51°15.105 2°54.36 11.8576 0.075359 0.424263 -0.304087
2011-01-27 08:04:47 51°15.12 2°54.343 11.9026 0.075359 0.42427 -0.304087
2011-01-27 08:04:51 51°15.132 2°54.329 11.8686 0.075359 0.424263 -0.304087
2011-01-27 08:04:56 51°15.146 2°54.312 11.8337 0.075359 0.424277 -0.304087
2011-01-27 08:05:01 51°15.16 2°54.293 11.8831 0.075359 0.424284 -0.304087
2011-01-27 08:05:06 51°15.174 2°54.275 11.8745 0.075359 0.424284 -0.304087
2011-01-27 08:05:11 51°15.188 2°54.256 11.9078 0.075359 0.424284 -0.304087
2011-01-27 08:05:16 51°15.201 2°54.239 11.837 0.075359 0.424292 -0.304087
2011-01-27 08:05:21 51°15.215 2°54.221 11.8311 0.075359 0.424306 -0.304087
2011-01-27 08:05:26 51°15.228 2°54.202 11.8219 0.075359 0.424292 -0.304087
2011-01-27 08:05:31 51°15.242 2°54.184 11.8683 0.075359 0.424299 -0.304087
2011-01-27 08:05:36 51°15.256 2°54.165 11.8714 0.075359 0.424299 -0.304087
2011-01-27 08:05:41 51°15.27 2°54.148 11.8691 0.075359 0.424299 -0.304087
2011-01-27 08:05:46 51°15.284 2°54.13 11.8332 0.075359 0.424306 -0.304087
2011-01-27 08:05:51 51°15.298 2°54.112 11.8636 0.075359 0.424299 -0.304087
2011-01-27 08:05:56 51°15.312 2°54.094 11.8487 0.075359 0.424306 -0.304087
2011-01-27 08:06:01 51°15.326 2°54.076 11.8376 0.075359 0.424292 -0.304087
2011-01-27 08:06:06 51°15.34 2°54.058 11.8722 0.075359 0.42432 -0.304087
2011-01-27 08:06:11 51°15.354 2°54.041 11.8352 0.075359 0.42432 -0.304087
2011-01-27 08:06:15 51°15.366 2°54.026 11.8511 0.075359 0.42432 -0.304087
2011-01-27 08:06:21 51°15.383 2°54.005 11.8528 0.075359 0.424313 -0.338911
2011-01-27 08:06:26 51°15.398 2°53.988 11.8529 0.075359 0.42432 -0.269263
2011-01-27 08:06:31 51°15.413 2°53.97 11.8793 0.075359 0.424334 -0.338911
2011-01-27 08:06:35 51°15.424 2°53.956 11.8901 0.075359 0.424334 -0.338911
2011-01-27 08:06:41 51°15.442 2°53.935 11.8528 0.075359 0.42432 -0.304087
2011-01-27 08:06:46 51°15.456 2°53.917 11.8732 0.075359 0.424334 -0.304087
2011-01-27 08:06:51 51°15.471 2°53.899 11.8804 0.075359 0.424327 -0.304087
2011-01-27 08:06:56 51°15.485 2°53.881 11.8802 0.075359 0.424334 -0.304087
2011-01-27 08:07:00 51°15.497 2°53.867 11.8764 0.075359 0.424341 -0.338911
2011-01-27 08:07:06 51°15.513 2°53.845 11.8732 0.075359 0.424341 -0.338911
2011-01-27 08:07:11 51°15.528 2°53.827 11.8816 0.075359 0.424341 -0.338911
2011-01-27 08:07:15 51°15.539 2°53.813 11.8657 0.075359 0.424341 -0.269263
2011-01-27 08:07:21 51°15.557 2°53.791 11.8826 0.075359 0.424363 -0.304087
2011-01-27 08:07:26 51°15.571 2°53.774 11.8701 0.075359 0.424356 -0.269263
2011-01-27 08:07:31 51°15.586 2°53.756 11.8661 0.075359 0.424363 -0.304087
2011-01-27 08:07:36 51°15.6 2°53.738 11.8718 0.075359 0.424363 -0.304087
2011-01-27 08:07:41 51°15.614 2°53.719 11.8794 0.075359 0.424363 -0.304087
2011-01-27 08:07:46 51°15.628 2°53.701 11.8604 0.075359 0.424363 -0.304087
2011-01-27 08:07:51 51°15.642 2°53.683 11.8885 0.075359 0.424363 -0.304087
2011-01-27 08:07:56 51°15.657 2°53.665 11.8788 0.075359 0.424363 -0.304087
2011-01-27 08:08:01 51°15.671 2°53.647 11.8841 0.075359 0.424363 -0.269263
2011-01-27 08:08:06 51°15.686 2°53.629 11.8907 0.075255 0.42377 -0.304087
2011-01-27 08:08:11 51°15.7 2°53.61 11.8761 0.075255 0.42377 -0.304087
2011-01-27 08:08:16 51°15.714 2°53.592 11.8648 0.075255 0.42377 -0.304087
2011-01-27 08:08:21 51°15.729 2°53.574 11.8837 0.075359 0.424377 -0.304087
2011-01-27 08:08:26 51°15.743 2°53.557 11.8703 0.075359 0.424391 -0.304087
2011-01-27 08:08:31 51°15.758 2°53.54 11.8807 0.075255 0.42377 -0.304087
2011-01-27 08:08:35 51°15.771 2°53.528 11.8571 0.075359 0.424384 -0.304087
2011-01-27 08:08:41 51°15.79 2°53.511 11.8542 0.075359 0.424384 -0.304087
2011-01-27 08:08:46 51°15.806 2°53.498 11.8728 0.075359 0.424377 -0.304087
2011-01-27 08:08:51 51°15.822 2°53.485 11.8676 0.075359 0.424377 -0.269263
2011-01-27 08:08:56 51°15.838 2°53.473 11.8971 0.075255 0.423813 -0.304087
2011-01-27 08:09:01 51°15.855 2°53.463 11.8726 0.075359 0.424391 -0.304087
2011-01-27 08:09:06 51°15.871 2°53.452 11.8964 0.075255 0.423799 -0.304087
2011-01-27 08:09:11 51°15.888 2°53.441 11.8983 0.075255 0.423799 -0.304087
2011-01-27 08:09:15 51°15.901 2°53.432 11.8871 0.075359 0.424384 -0.304087
2011-01-27 08:09:21 51°15.92 2°53.42 11.8773 0.075255 0.423799 -0.338911
2011-01-27 08:09:26 51°15.937 2°53.408 11.8995 0.075359 0.424405 -0.269263
2011-01-27 08:09:31 51°15.953 2°53.397 11.9029 0.075359 0.424412 -0.304087
2011-01-27 08:09:36 51°15.97 2°53.384 11.904 0.075359 0.424412 -0.304087
2011-01-27 08:09:41 51°15.986 2°53.372 11.8889 0.075359 0.424412 -0.304087
2011-01-27 08:09:46 51°16.002 2°53.36 11.9042 0.075255 0.423813 -0.304087
2011-01-27 08:09:51 51°16.019 2°53.347 11.8876 0.075359 0.424412 -0.304087
2011-01-27 08:09:56 51°16.035 2°53.334 11.9088 0.075359 0.424434 -0.304087
2011-01-27 08:10:01 51°16.051 2°53.321 11.9065 0.075255 0.42382 -0.304087
2011-01-27 08:10:06 51°16.068 2°53.309 11.8988 0.075255 0.42382 -0.304087
2011-01-27 08:10:11 51°16.085 2°53.296 11.8959 0.075255 0.42382 -0.304087
2011-01-27 08:10:16 51°16.101 2°53.283 11.9083 0.075359 0.424427 -0.304087
2011-01-27 08:10:21 51°16.117 2°53.27 11.898 0.075255 0.423827 -0.338911
2011-01-27 08:10:26 51°16.134 2°53.257 11.9167 0.075255 0.42382 -0.269263
2011-01-27 08:10:31 51°16.15 2°53.244 11.906 0.075359 0.424441 -0.304087
2011-01-27 08:10:35 51°16.163 2°53.234 11.9193 0.075255 0.423841 -0.338911
2011-01-27 08:10:41 51°16.183 2°53.218 11.921 0.075255 0.423841 -0.338911
2011-01-27 08:10:46 51°16.198 2°53.205 11.9005 0.075255 0.423834 -0.304087
2011-01-27 08:10:51 51°16.214 2°53.191 11.9222 0.075359 0.424455 -0.338911
2011-01-27 08:10:55 51°16.227 2°53.181 11.9201 0.075255 0.423841 -0.338911
2011-01-27 08:11:01 51°16.247 2°53.165 11.9231 0.075359 0.424455 -0.304087
2011-01-27 08:11:06 51°16.263 2°53.152 11.9105 0.075255 0.423834 -0.304087
2011-01-27 08:11:11 51°16.279 2°53.14 11.9245 0.075255 0.423834 -0.304087
2011-01-27 08:11:16 51°16.296 2°53.127 11.9267 0.075359 0.424462 -0.338911
2011-01-27 08:11:21 51°16.312 2°53.114 11.9175 0.075255 0.423869 -0.304087
2011-01-27 08:11:26 51°16.329 2°53.102 11.9137 0.075255 0.423869 -0.304087
2011-01-27 08:11:31 51°16.345 2°53.089 11.9228 0.075255 0.423862 -0.304087
2011-01-27 08:11:35 51°16.359 2°53.079 11.9339 0.075255 0.423877 -0.338911
2011-01-27 08:11:41 51°16.379 2°53.064 11.9364 0.075255 0.423877 -0.338911
2011-01-27 08:11:46 51°16.395 2°53.052 11.9248 0.075255 0.423862 -0.338911
2011-01-27 08:11:51 51°16.412 2°53.04 11.9298 0.075255 0.423877 -0.304087
2011-01-27 08:11:56 51°16.428 2°53.028 11.9309 0.075255 0.423869 -0.338911
2011-01-27 08:12:01 51°16.444 2°53.015 11.9345 0.075255 0.423898 -0.304087
2011-01-27 08:12:06 51°16.461 2°53.003 11.9334 0.075255 0.423884 -0.269263
2011-01-27 08:12:11 51°16.478 2°52.991 11.9393 0.075255 0.423884 -0.269263
2011-01-27 08:12:16 51°16.494 2°52.979 11.9467 0.075255 0.423877 -0.304087
2011-01-27 08:12:21 51°16.511 2°52.967 11.933 0.075255 0.423891 -0.269263
2011-01-27 08:12:26 51°16.528 2°52.956 11.949 0.075359 0.424491 -0.304087
2011-01-27 08:12:31 51°16.545 2°52.944 11.9508 0.075255 0.423905 -0.304087
2011-01-27 08:12:36 51°16.561 2°52.932 11.9609 0.075255 0.423891 -0.304087
2011-01-27 08:12:41 51°16.577 2°52.92 11.9432 0.075255 0.423891 -0.304087
2011-01-27 08:12:46 51°16.593 2°52.908 11.9356 0.075255 0.423933 -0.304087
2011-01-27 08:12:51 51°16.609 2°52.896 11.9474 0.075359 0.424512 -0.304087
2011-01-27 08:12:55 51°16.623 2°52.887 11.9441 0.075255 0.423919 -0.304087
2011-01-27 08:13:01 51°16.642 2°52.872 11.9601 0.075255 0.423926 -0.304087
2011-01-27 08:13:06 51°16.659 2°52.86 11.9467 0.075255 0.423905 -0.304087
2011-01-27 08:13:11 51°16.675 2°52.848 11.9596 0.075255 0.423905 -0.304087
2011-01-27 08:13:16 51°16.692 2°52.835 11.9622 0.075255 0.423919 -0.304087
2011-01-27 08:13:21 51°16.708 2°52.823 11.9517 0.075255 0.423912 -0.304087
2011-01-27 08:13:26 51°16.725 2°52.811 11.9636 0.075255 0.423912 -0.304087
2011-01-27 08:13:31 51°16.742 2°52.799 11.9521 0.075255 0.423926 -0.304087
2011-01-27 08:13:35 51°16.755 2°52.79 11.9691 0.075255 0.423926 -0.304087
2011-01-27 08:13:41 51°16.775 2°52.776 11.956 0.075255 0.423926 -0.304087
2011-01-27 08:13:46 51°16.792 2°52.764 11.9806 0.075255 0.423926 -0.304087
2011-01-27 08:13:51 51°16.809 2°52.751 8.113 0.075255 0.423933 -0.338911
2011-01-27 08:13:56 51°16.825 2°52.738 6.7004 0.075047 0.423906 -0.129967
2011-01-27 08:14:00 51°16.838 2°52.729 6.0221 0.114386 0.654918 0.009329
2011-01-27 08:14:06 51°16.858 2°52.714 5.8242 0.114386 0.657669 -0.234439
2011-01-27 08:14:11 51°16.875 2°52.702 5.5805 0.114386 0.657669 -0.234439
2011-01-27 08:14:15 51°16.889 2°52.692 5.4602 0.247503 1.501404 -0.304087
2011-01-27 08:14:21 51°16.909 2°52.678 5.3986 1.902299 14.35399 0.009329
2011-01-27 08:14:26 51°16.926 2°52.666 5.3092 2.369556 19.458631 -0.129967
2011-01-27 08:14:31 51°16.943 2°52.654 5.181 2.327277 19.791623 0.044153
2011-01-27 08:14:36 51°16.96 2°52.642 5.1629 2.719309 24.582772 -0.025495
2011-01-27 08:14:41 51°16.976 2°52.629 5.1524 2.719309 24.582772 -0.025495
2011-01-27 08:14:46 51°16.993 2°52.617 5.0973 2.917507 27.595654 -0.129967
2011-01-27 08:14:51 51°17.01 2°52.605 5.0784 3.000201 29.024317 0.009329
2011-01-27 08:14:56 51°17.026 2°52.593 5.1039 2.979243 29.214369 -0.095143
2011-01-27 08:15:01 51°17.043 2°52.581 5.1121 2.969765 29.348834 -0.025495
2011-01-27 08:15:06 51°17.06 2°52.568 5.0828 2.941749 29.25897 -0.060319
2011-01-27 08:15:11 51°17.076 2°52.557 5.1064 2.941749 29.25897 -0.060319
2011-01-27 08:15:15 51°17.089 2°52.547 5.0563 2.935537 29.401734 -0.060319
2011-01-27 08:15:21 51°17.109 2°52.532 5.0262 2.92332 29.383839 -0.060319
2011-01-27 08:15:26 51°17.126 2°52.52 5.0431 2.921951 29.453299 -0.025495
2011-01-27 08:15:31 51°17.142 2°52.508 5.0279 2.910998 29.393529 0.113802
2011-01-27 08:15:36 51°17.159 2°52.496 5.0013 2.910998 29.393529 0.113802
2011-01-27 08:15:41 51°17.175 2°52.484 4.9546 2.9051 29.372535 0.044153
2011-01-27 08:15:46 51°17.192 2°52.471 4.9576 2.895937 29.284723 -0.060319
2011-01-27 08:15:51 51°17.209 2°52.459 4.9622 2.890672 29.264572 0.009329
2011-01-27 08:15:55 51°17.222 2°52.449 4.9507 2.889935 29.280596 -0.060319
2011-01-27 08:16:01 51°17.242 2°52.435 4.9544 2.885617 29.255842 -0.129967
2011-01-27 08:16:06 51°17.259 2°52.423 4.9527 2.880562 29.223569 -0.129967
2011-01-27 08:16:11 51°17.276 2°52.41 4.9379 2.880562 29.223569 -0.129967
2011-01-27 08:16:16 51°17.293 2°52.398 4.9328 2.881089 29.259082 -0.129967
2011-01-27 08:16:21 51°17.309 2°52.386 4.9367 2.879614 29.260055 -0.025495
2011-01-27 08:16:26 51°17.326 2°52.374 4.9298 2.876034 29.257969 -0.164791
2011-01-27 08:16:31 51°17.343 2°52.362 4.9083 2.875297 29.25884 -0.060319
2011-01-27 08:16:36 51°17.359 2°52.35 4.9085 2.876666 29.294045 -0.060319
2011-01-27 08:16:41 51°17.376 2°52.338 4.8858 2.876666 29.294045 -0.060319
2011-01-27 08:16:46 51°17.393 2°52.326 4.8981 2.872769 29.258674 -0.060319
2011-01-27 08:16:51 51°17.409 2°52.314 4.9037 2.87635 29.308068 -0.199615
2011-01-27 08:16:56 51°17.426 2°52.301 4.8766 2.871295 29.261951 0.009329
2011-01-27 08:17:01 51°17.443 2°52.289 4.8879 2.872243 29.281009 -0.060319
2011-01-27 08:17:06 51°17.46 2°52.276 4.8608 2.869821 29.265235 -0.025495
2011-01-27 08:17:11 51°17.476 2°52.264 4.8831 2.869821 29.265235 -0.025495
2011-01-27 08:17:15 51°17.489 2°52.253 4.8761 2.869084 29.259237 -0.095143
2011-01-27 08:17:21 51°17.51 2°52.238 4.8409 2.864977 29.233661 -0.095143
2011-01-27 08:17:26 51°17.526 2°52.225 4.8422 2.863502 29.220126 -0.025495
2011-01-27 08:17:31 51°17.543 2°52.212 4.8416 2.860027 29.190178 -0.025495
2011-01-27 08:17:35 51°17.557 2°52.202 4.8294 2.858131 29.181816 -0.025495
2011-01-27 08:17:41 51°17.577 2°52.186 4.8312 2.858131 29.181816 -0.025495
2011-01-27 08:17:46 51°17.593 2°52.174 4.8236 2.861923 29.232915 -0.129967
2011-01-27 08:17:51 51°17.61 2°52.16 4.8369 2.859817 29.214543 -0.199615
2011-01-27 08:17:56 51°17.627 2°52.147 4.8378 2.858763 29.206502 -0.060319
2011-01-27 08:18:01 51°17.643 2°52.134 4.8288 2.856025 29.190175 -0.025495
2011-01-27 08:18:06 51°17.66 2°52.122 4.8383 2.856026 29.204708 -0.095143
2011-01-27 08:18:11 51°17.677 2°52.108 4.8232 2.856026 29.204708 -0.095143
2011-01-27 08:18:15 51°17.691 2°52.098 4.8174 2.852234 29.168079 0.009329
2011-01-27 08:18:21 51°17.711 2°52.084 4.8288 2.856447 29.220943 -0.095143
2011-01-27 08:18:26 51°17.727 2°52.072 4.8184 2.853498 29.195337 -0.129967
2011-01-27 08:18:31 51°17.744 2°52.059 4.8107 2.854446 29.205264 -0.060319
2011-01-27 08:18:36 51°17.761 2°52.047 4.8316 2.856552 29.229027 -0.060319
2011-01-27 08:18:41 51°17.777 2°52.034 4.8049 2.856552 29.229027 -0.060319
2011-01-27 08:18:46 51°17.794 2°52.022 4.8296 2.856658 29.233281 -0.129967
2011-01-27 08:18:51 51°17.811 2°52.01 4.8661 2.856447 29.234738 -0.060319
2011-01-27 08:18:55 51°17.824 2°52.002 4.8259 2.855499 29.228642 -0.025495
2011-01-27 08:19:01 51°17.845 2°51.991 4.8292 2.860133 29.285556 -0.164791
2011-01-27 08:19:06 51°17.862 2°51.984 4.8628 2.858659 29.271982 -0.025495
2011-01-27 08:19:11 51°17.88 2°51.977 4.8611 2.858659 29.271982 -0.025495
2011-01-27 08:19:16 51°17.898 2°51.971 4.8642 2.856237 29.246936 -0.095143
2011-01-27 08:19:21 51°17.915 2°51.965 4.8666 2.855815 29.244482 -0.060319
2011-01-27 08:19:26 51°17.933 2°51.959 4.8787 2.855078 29.235391 0.009329
2011-01-27 08:19:31 51°17.951 2°51.953 4.8908 2.853182 29.205558 -0.199615
2011-01-27 08:19:36 51°17.968 2°51.948 4.8946 2.870033 29.396587 0.009329
2011-01-27 08:19:41 51°17.985 2°51.942 4.8849 2.870033 29.396587 0.009329
2011-01-27 08:19:46 51°18.003 2°51.938 4.8902 2.876352 29.464885 -0.095143
2011-01-27 08:19:51 51°18.021 2°51.932 4.8797 2.880775 29.509448 -0.095143
2011-01-27 08:19:55 51°18.035 2°51.929 4.8724 2.884988 29.548526 -0.164791
2011-01-27 08:20:01 51°18.057 2°51.922 4.8777 2.889412 29.598506 -0.025495
2011-01-27 08:20:06 51°18.075 2°51.917 4.8882 2.89236 29.623288 -0.025495
2011-01-27 08:20:11 51°18.093 2°51.912 4.9023 2.89236 29.623288 -0.025495
2011-01-27 08:20:16 51°18.111 2°51.907 4.8835 2.894151 29.639633 -0.060319
2011-01-27 08:20:21 51°18.129 2°51.902 4.8818 2.897311 29.671445 -0.129967
2011-01-27 08:20:26 51°18.148 2°51.897 4.8762 2.899522 29.699549 0.009329
2011-01-27 08:20:31 51°18.166 2°51.892 4.8827 2.90205 29.729674 -0.095143
2011-01-27 08:20:36 51°18.184 2°51.887 4.8843 2.904473 29.760176 -0.060319
2011-01-27 08:20:40 51°18.199 2°51.883 4.878 2.904473 29.760176 -0.060319
2011-01-27 08:20:46 51°18.22 2°51.875 4.8783 2.904473 29.759396 -0.025495
2011-01-27 08:20:51 51°18.238 2°51.869 4.8749 2.903735 29.745603 -0.095143
2011-01-27 08:20:55 51°18.252 2°51.863 4.8823 2.905421 29.766211 -0.095143
2011-01-27 08:21:01 51°18.274 2°51.855 4.8725 2.905631 29.770933 -0.025495
2011-01-27 08:21:06 51°18.291 2°51.848 4.8679 2.905631 29.774835 -0.025495
2011-01-27 08:21:11 51°18.309 2°51.842 4.8731 2.905631 29.774835 -0.025495
2011-01-27 08:21:16 51°18.327 2°51.834 4.8634 2.907 29.791879 -0.164791
2011-01-27 08:21:21 51°18.344 2°51.827 4.8756 2.905631 29.777177 0.009329
2011-01-27 08:21:26 51°18.361 2°51.818 4.8703 2.907422 29.798986 -0.025495
2011-01-27 08:21:31 51°18.378 2°51.811 4.8645 2.907843 29.801407 0.18345
2011-01-27 08:21:36 51°18.396 2°51.804 4.8691 2.907843 29.804532 -0.095143
2011-01-27 08:21:41 51°18.414 2°51.796 4.8706 2.907843 29.804532 -0.095143
2011-01-27 08:21:46 51°18.431 2°51.789 4.8747 2.908264 29.808515 0.009329
2011-01-27 08:21:51 51°18.448 2°51.781 4.8823 2.909002 29.822327 -0.095143
2011-01-27 08:21:55 51°18.462 2°51.775 4.8787 2.909107 29.826647 -0.095143
2011-01-27 08:22:01 51°18.483 2°51.766 4.8795 2.908896 29.825047 0.044153
2011-01-27 08:22:06 51°18.5 2°51.758 4.8867 2.911003 29.851228 0.009329
2011-01-27 08:22:11 51°18.518 2°51.751 4.8919 2.911003 29.851228 0.009329
2011-01-27 08:22:15 51°18.532 2°51.745 4.8896 2.911635 29.859945 -0.129967
2011-01-27 08:22:21 51°18.553 2°51.736 4.9005 2.913952 29.884601 -0.129967
2011-01-27 08:22:26 51°18.57 2°51.728 4.9042 2.915953 29.904111 -0.025495
2011-01-27 08:22:31 51°18.588 2°51.72 4.8934 2.917744 29.923591 -0.060319
2011-01-27 08:22:36 51°18.605 2°51.713 4.899 2.919008 29.934755 -0.060319
2011-01-27 08:22:40 51°18.62 2°51.707 4.892 2.919008 29.934755 -0.060319
2011-01-27 08:22:46 51°18.641 2°51.697 4.891 2.920272 29.944348 -0.025495
2011-01-27 08:22:51 51°18.658 2°51.69 4.8979 2.922062 29.968539 -0.060319
2011-01-27 08:22:55 51°18.672 2°51.684 4.8958 2.922168 29.965802 0.044153
2011-01-27 08:23:01 51°18.694 2°51.674 4.8884 2.921641 29.95513 -0.095143
2011-01-27 08:23:06 51°18.711 2°51.667 4.8863 2.923747 29.976609 0.044153
2011-01-27 08:23:11 51°18.729 2°51.66 4.8823 2.923747 29.976609 0.044153
2011-01-27 08:23:16 51°18.746 2°51.652 4.883 2.925011 29.989339 0.044153
2011-01-27 08:23:20 51°18.761 2°51.646 4.8759 2.925327 29.996846 -0.095143
2011-01-27 08:23:26 51°18.782 2°51.637 4.8823 2.925959 30.005571 -0.095143
2011-01-27 08:23:31 51°18.799 2°51.629 4.871 2.926275 30.009147 -0.164791
2011-01-27 08:23:35 51°18.813 2°51.623 4.8722 2.926486 30.014679 -0.025495
2011-01-27 08:23:41 51°18.834 2°51.614 4.8797 2.926486 30.014679 -0.025495
2011-01-27 08:23:46 51°18.851 2°51.605 4.8802 2.926802 30.019043 -0.095143
2011-01-27 08:23:51 51°18.869 2°51.597 4.8807 2.927118 30.02577 -0.025495
2011-01-27 08:23:56 51°18.887 2°51.589 4.8758 2.927013 30.026939 0.113802
2011-01-27 08:24:01 51°18.904 2°51.581 4.8655 2.927013 30.030878 0.009329
2011-01-27 08:24:06 51°18.922 2°51.574 4.8696 2.927329 30.033668 -0.025495
2011-01-27 08:24:11 51°18.94 2°51.566 4.8662 2.927329 30.033668 -0.025495
2011-01-27 08:24:15 51°18.954 2°51.56 4.8593 2.927118 30.03601 -0.060319
2011-01-27 08:24:21 51°18.976 2°51.55 4.8647 2.926591 30.029258 0.009329
2011-01-27 08:24:26 51°18.993 2°51.543 4.8638 2.926486 30.028065 0.009329
2011-01-27 08:24:31 51°19.01 2°51.536 4.8577 2.926275 30.027255 -0.025495
2011-01-27 08:24:36 51°19.027 2°51.528 4.8621 2.926486 30.031216 0.044153
2011-01-27 08:24:40 51°19.041 2°51.521 4.8584 2.926486 30.031216 0.044153
2011-01-27 08:24:46 51°19.061 2°51.509 4.8544 2.926276 30.034346 0.044153
2011-01-27 08:24:51 51°19.078 2°51.499 4.8554 2.92617 30.033942 0.113802
2011-01-27 08:24:55 51°19.092 2°51.491 4.8605 2.926065 30.033537 0.009329
2011-01-27 08:25:01 51°19.113 2°51.477 4.8492 2.925854 30.034303 0.009329
2011-01-27 08:25:06 51°19.129 2°51.465 4.8487 2.925644 30.034281 0.113802
2011-01-27 08:25:11 51°19.146 2°51.453 4.8535 2.925644 30.034281 0.113802
2011-01-27 08:25:15 51°19.16 2°51.444 4.8541 2.925433 30.032683 0.009329
2011-01-27 08:25:21 51°19.18 2°51.429 4.8456 2.925433 30.036625 0.148626
2011-01-27 08:25:26 51°19.197 2°51.417 4.8492 2.925222 30.036604 0.078977
2011-01-27 08:25:31 51°19.214 2°51.405 4.8465 2.925328 30.038586 0.113802
2011-01-27 08:25:36 51°19.231 2°51.393 4.8445 2.925012 30.036582 0.044153
2011-01-27 08:25:41 51°19.248 2°51.381 4.8425 2.925012 30.036582 0.044153
2011-01-27 08:25:46 51°19.265 2°51.369 4.8443 2.925328 30.043319 0.113802
2011-01-27 08:25:51 51°19.283 2°51.357 4.8435 2.925222 30.041336 0.18345
2011-01-27 08:25:56 51°19.3 2°51.345 4.8391 2.925222 30.042125 0.078977
2011-01-27 08:26:01 51°19.317 2°51.334 4.8405 2.924696 30.038523 0.044153
2011-01-27 08:26:06 51°19.334 2°51.321 4.8394 2.924907 30.044067 0.148626
2011-01-27 08:26:11 51°19.351 2°51.31 4.845 2.924907 30.044067 0.148626
2011-01-27 08:26:16 51°19.368 2°51.297 4.8394 2.924907 30.043277 0.18345
2011-01-27 08:26:21 51°19.385 2°51.285 4.838 2.924801 30.044451 0.18345
2011-01-27 08:26:26 51°19.401 2°51.273 4.8413 2.924485 30.042447 0.287922
2011-01-27 08:26:31 51°19.418 2°51.26 4.8484 2.924485 30.042447 0.253098
2011-01-27 08:26:36 51°19.434 2°51.247 4.8484 2.924485 30.046393 0.287922
2011-01-27 08:26:41 51°19.451 2°51.235 4.8419 2.924485 30.046393 0.287922
2011-01-27 08:26:46 51°19.468 2°51.223 4.8458 2.923643 30.033683 0.18345
2011-01-27 08:26:51 51°19.485 2°51.211 4.8415 2.923959 30.040422 0.253098
2011-01-27 08:26:55 51°19.499 2°51.201 4.8409 2.923959 30.040422 0.18345
2011-01-27 08:27:01 51°19.519 2°51.187 4.847 2.924064 30.042405 0.287922
2011-01-27 08:27:06 51°19.536 2°51.175 4.8456 2.924485 30.044814 0.18345
2011-01-27 08:27:11 51°19.554 2°51.164 4.8392 2.924485 30.044814 0.18345
2011-01-27 08:27:16 51°19.57 2°51.151 4.8395 2.925012 30.049996 0.287922
2011-01-27 08:27:21 51°19.587 2°51.139 4.8366 2.925223 30.053174 0.287922
2011-01-27 08:27:26 51°19.605 2°51.128 4.8418 2.925012 30.049996 0.253098
2011-01-27 08:27:31 51°19.622 2°51.115 4.8355 2.924907 30.049591 0.462042
2011-01-27 08:27:36 51°19.639 2°51.103 4.8446 2.92438 30.04362 0.218274
2011-01-27 08:27:40 51°19.652 2°51.093 4.844 2.92438 30.04362 0.218274
2011-01-27 08:27:46 51°19.673 2°51.079 4.8385 2.924801 30.048397 0.392394
2011-01-27 08:27:51 51°19.689 2°51.067 4.8419 2.926171 30.065503 0.287922
2011-01-27 08:27:55 51°19.703 2°51.057 4.8379 2.925539 30.060706 0.287922
2011-01-27 08:28:01 51°19.723 2°51.042 4.8433 2.925749 30.063885 0.322746
2011-01-27 08:28:06 51°19.74 2°51.029 4.8368 2.925749 30.063885 0.322746
2011-01-27 08:28:11 51°19.757 2°51.018 4.835 2.925539 30.060706 0.392394
2011-01-27 08:28:16 51°19.774 2°51.005 4.8358 2.926171 30.068663 0.496866
2011-01-27 08:28:21 51°19.791 2°50.993 4.8388 2.926276 30.069067 0.35757
2011-01-27 08:28:26 51°19.808 2°50.98 4.8385 2.926592 30.073441 0.322746
2011-01-27 08:28:31 51°19.825 2°50.967 4.842 2.926487 30.074617 0.253098
2011-01-27 08:28:36 51°19.842 2°50.955 4.8405 2.927751 30.088953 0.462042
2011-01-27 08:28:41 51°19.859 2°50.942 4.8437 2.927751 30.088953 0.462042
2011-01-27 08:28:46 51°19.876 2°50.93 4.8423 2.927013 30.082171 0.392394
2011-01-27 08:28:51 51°19.892 2°50.918 4.8493 2.927645 30.090921 0.427218
2011-01-27 08:28:56 51°19.909 2°50.906 4.8467 2.928593 30.101675 0.287922
2011-01-27 08:29:01 51°19.925 2°50.894 4.8447 2.929857 30.116015 0.392394
2011-01-27 08:29:06 51°19.941 2°50.882 4.8495 2.930489 30.123185 0.392394
2011-01-27 08:29:11 51°19.958 2°50.87 4.8542 2.930489 30.123185 0.392394
2011-01-27 08:29:15 51°19.971 2°50.86 4.851 2.931437 30.130773 0.53169
2011-01-27 08:29:21 51°19.992 2°50.846 4.8549 2.93249 30.141138 0.218274
2011-01-27 08:29:26 51°20.009 2°50.833 4.854 2.93249 30.140346 0.113802
2011-01-27 08:29:31 51°20.025 2°50.821 4.8612 2.933438 30.150308 0.253098
2011-01-27 08:29:36 51°20.042 2°50.81 4.8628 2.93565 30.175404 0.148626
2011-01-27 08:29:40 51°20.055 2°50.801 4.8567 2.93565 30.175404 0.148626
2011-01-27 08:29:46 51°20.075 2°50.788 4.8559 2.937125 30.191342 0.218274
2011-01-27 08:29:51 51°20.092 2°50.777 4.8639 2.939337 30.21406 0.18345
2011-01-27 08:29:55 51°20.105 2°50.768 4.8609 2.939969 30.219643 0.148626
2011-01-27 08:30:01 51°20.126 2°50.753 4.8591 2.942286 30.245143 0.218274
2011-01-27 08:30:06 51°20.143 2°50.742 4.8589 2.942286 30.245143 0.218274
2011-01-27 08:30:11 51°20.16 2°50.73 4.8582 2.945341 30.276627 0.113802
2011-01-27 08:30:16 51°20.177 2°50.718 4.859 2.947658 30.300537 0.148626
2011-01-27 08:30:21 51°20.194 2°50.706 4.8609 2.949554 30.322055 0.287922
2011-01-27 08:30:26 51°20.212 2°50.695 4.8636 2.951555 30.34477 0.253098
2011-01-27 08:30:31 51°20.229 2°50.683 4.8627 2.953557 30.367487 0.253098
2011-01-27 08:30:35 51°20.243 2°50.675 4.8556 2.954189 30.37546 0.253098
2011-01-27 08:30:41 51°20.264 2°50.66 4.8584 2.954189 30.37546 0.253098
2011-01-27 08:30:46 51°20.281 2°50.649 4.8513 2.955558 30.391804 0.253098
2011-01-27 08:30:51 51°20.298 2°50.636 4.8559 2.956401 30.401371 0.287922
2011-01-27 08:30:56 51°20.315 2°50.624 4.8607 2.956611 30.402166 0.287922
2011-01-27 08:31:01 51°20.331 2°50.611 4.86 2.956822 30.406155 0.218274
2011-01-27 08:31:06 51°20.349 2°50.599 4.8639 2.956295 30.400974 0.427218
2011-01-27 08:31:11 51°20.366 2°50.588 4.8545 2.956295 30.400974 0.427218
2011-01-27 08:31:16 51°20.383 2°50.577 4.8471 2.955453 30.389809 0.253098
2011-01-27 08:31:21 51°20.4 2°50.564 4.8521 2.955558 30.394199 0.287922
2011-01-27 08:31:26 51°20.417 2°50.553 4.8543 2.955558 30.395796 0.322746
2011-01-27 08:31:31 51°20.434 2°50.541 4.8457 2.954821 30.385827 0.322746
2011-01-27 08:31:35 51°20.448 2°50.532 4.8385 2.955347 30.391807 0.392394
2011-01-27 08:31:41 51°20.468 2°50.516 4.8378 2.955347 30.391807 0.392394
2011-01-27 08:31:46 51°20.485 2°50.504 4.8372 2.955242 30.388216 0.35757
2011-01-27 08:31:51 51°20.501 2°50.491 4.8375 2.955558 30.3934 0.35757
2011-01-27 08:31:55 51°20.514 2°50.48 4.8409 2.954715 30.387026 0.35757
2011-01-27 08:32:01 51°20.535 2°50.465 4.8499 2.955663 30.39779 0.35757
2011-01-27 08:32:06 51°20.551 2°50.453 4.8377 2.955663 30.39779 0.35757
2011-01-27 08:32:11 51°20.567 2°50.44 4.8414 2.954821 30.391416 0.392394
2011-01-27 08:32:16 51°20.583 2°50.429 4.8445 2.95461 30.391419 0.392394
2011-01-27 08:32:21 51°20.6 2°50.417 4.8414 2.955242 30.404189 0.322746
2011-01-27 08:32:26 51°20.616 2°50.406 4.8401 2.955242 30.404988 0.427218
2011-01-27 08:32:31 51°20.633 2°50.394 4.8452 2.955137 30.40539 0.427218
2011-01-27 08:32:36 51°20.649 2°50.382 4.8532 2.955558 30.408578 0.496866
2011-01-27 08:32:41 51°20.665 2°50.37 4.8621 2.955558 30.408578 0.496866
2011-01-27 08:32:46 51°20.682 2°50.357 4.8647 2.954926 30.4006 0.496866
2011-01-27 08:32:51 51°20.698 2°50.344 4.864 2.957244 30.425325 0.427218
2011-01-27 08:32:56 51°20.714 2°50.333 4.8672 2.956612 30.418145 0.427218
2011-01-27 08:33:01 51°20.731 2°50.32 4.871 2.957981 30.434501 0.496866
2011-01-27 08:33:06 51°20.747 2°50.308 4.8718 2.961036 30.470007 0.462042
2011-01-27 08:33:11 51°20.764 2°50.295 4.8763 2.961036 30.470007 0.462042
2011-01-27 08:33:16 51°20.78 2°50.283 4.8692 2.964196 30.504312 0.53169
2011-01-27 08:33:21 51°20.797 2°50.271 4.8708 2.967777 30.541 0.566514
2011-01-27 08:33:26 51°20.814 2°50.258 4.8757 2.970305 30.565715 0.636162
2011-01-27 08:33:31 51°20.83 2°50.246 4.8807 2.972939 30.593232 0.35757
2011-01-27 08:33:35 51°20.844 2°50.236 4.8847 2.972939 30.593232 0.35757
2011-01-27 08:33:41 51°20.864 2°50.221 4.887 2.975677 30.619532 0.462042
2011-01-27 08:33:46 51°20.881 2°50.209 4.8927 2.977679 30.639058 0.427218
2011-01-27 08:33:51 51°20.897 2°50.198 4.8928 2.979575 30.658191 0.53169
2011-01-27 08:33:56 51°20.914 2°50.186 4.8925 2.981366 30.678542 0.462042
2011-01-27 08:34:01 51°20.931 2°50.174 4.8906 2.982419 30.690515 0.53169
2011-01-27 08:34:06 51°20.947 2°50.161 4.8961 2.983788 30.703661 0.496866
2011-01-27 08:34:11 51°20.964 2°50.148 4.8987 2.983788 30.703661 0.496866
2011-01-27 08:34:16 51°20.98 2°50.136 4.8972 2.984947 30.713604 0.53169
2011-01-27 08:34:20 51°20.994 2°50.125 4.907 2.985474 30.714751 0.496866
2011-01-27 08:34:26 51°21.013 2°50.111 4.9018 2.985158 30.706323 0.566514
2011-01-27 08:34:31 51°21.03 2°50.099 4.9088 2.986632 30.72308 0.670986
2011-01-27 08:34:35 51°21.042 2°50.089 4.9062 2.988528 30.743011 0.566514
2011-01-27 08:34:41 51°21.062 2°50.074 4.9087 2.988528 30.743011 0.566514
2011-01-27 08:34:46 51°21.078 2°50.062 4.9106 2.990003 30.757347 0.601338
2011-01-27 08:34:51 51°21.095 2°50.05 4.9072 2.990319 30.760131 0.636162
2011-01-27 08:34:56 51°21.112 2°50.037 4.91 2.992005 30.777667 0.601338
2011-01-27 08:35:01 51°21.129 2°50.025 4.9124 2.991478 30.768453 0.601338
2011-01-27 08:35:06 51°21.146 2°50.012 4.9108 2.993479 30.787962 0.670986
2011-01-27 08:35:11 51°21.162 2°49.999 4.9145 2.993479 30.787962 0.670986
2011-01-27 08:35:16 51°21.179 2°49.986 4.9118 2.994322 30.796729 0.601338
2011-01-27 08:35:21 51°21.196 2°49.974 4.9132 2.995376 30.807081 0.53169
2011-01-27 08:35:26 51°21.213 2°49.961 4.9092 2.996429 30.816624 0.601338
2011-01-27 08:35:31 51°21.23 2°49.947 4.9081 2.997693 30.831795 0.740634
2011-01-27 08:35:35 51°21.243 2°49.937 4.9096 2.997693 30.831795 0.740634
2011-01-27 08:35:41 51°21.264 2°49.923 4.9125 2.99843 30.839365 0.70581
2011-01-27 08:35:46 51°21.281 2°49.91 4.9063 2.999484 30.849716 0.636162
2011-01-27 08:35:51 51°21.297 2°49.897 4.9018 2.998536 30.838943 0.670986
2011-01-27 08:35:55 51°21.311 2°49.887 4.8989 2.999168 30.846125 0.670986
2011-01-27 08:36:01 51°21.332 2°49.872 4.8964 3.000011 30.854082 0.670986
2011-01-27 08:36:06 51°21.348 2°49.86 4.9006 2.9998 30.854925 0.70581
2011-01-27 08:36:11 51°21.366 2°49.848 4.903 2.9998 30.854925 0.70581
2011-01-27 08:36:16 51°21.383 2°49.836 4.8961 2.999589 30.851722 0.740634
2011-01-27 08:36:20 51°21.396 2°49.826 4.8918 2.999062 30.846546 0.601338
2011-01-27 08:36:26 51°21.417 2°49.811 4.8909 2.99843 30.838556 0.670986
2011-01-27 08:36:31 51°21.434 2°49.798 4.8917 2.998641 30.845805 0.601338
2011-01-27 08:36:35 51°21.447 2°49.788 4.8897 2.99843 30.84341 0.70581
2011-01-27 08:36:41 51°21.468 2°49.773 4.8838 2.99843 30.84341 0.70581
2011-01-27 08:36:46 51°21.485 2°49.761 4.8894 2.999379 30.854994 0.740634
2011-01-27 08:36:51 51°21.502 2°49.749 4.8906 2.997798 30.839465 0.670986
2011-01-27 08:36:56 51°21.519 2°49.737 4.8931 2.998009 30.843478 0.670986
2011-01-27 08:37:01 51°21.537 2°49.725 4.8874 2.997588 30.839498 0.70581
2011-01-27 08:37:06 51°21.554 2°49.713 4.8907 2.997693 30.843933 0.70581
2011-01-27 08:37:11 51°21.571 2°49.7 4.8949 2.997693 30.843933 0.70581
2011-01-27 08:37:16 51°21.588 2°49.688 4.8899 2.996008 30.825585 0.740634
2011-01-27 08:37:21 51°21.606 2°49.676 4.8962 2.99664 30.834387 0.740634
2011-01-27 08:37:26 51°21.622 2°49.665 4.9009 2.99685 30.84002 0.70581
2011-01-27 08:37:31 51°21.639 2°49.653 4.9024 2.995797 30.826426 0.740634
2011-01-27 08:37:36 51°21.655 2°49.641 4.9062 2.997061 30.840796 0.670986
2011-01-27 08:37:41 51°21.672 2°49.63 4.9029 2.997061 30.840796 0.670986
2011-01-27 08:37:46 51°21.689 2°49.617 4.9104 2.997377 30.844389 0.740634
2011-01-27 08:37:51 51°21.706 2°49.605 4.9129 2.997588 30.847594 0.70581
2011-01-27 08:37:56 51°21.723 2°49.593 4.9179 2.998536 30.858372 0.70581
2011-01-27 08:38:01 51°21.74 2°49.581 4.9179 2.998431 30.853935 0.670986
2011-01-27 08:38:06 51°21.757 2°49.569 4.9186 2.999168 30.859887 0.670986
2011-01-27 08:38:11 51°21.774 2°49.557 4.9216 2.999168 30.859887 0.670986
2011-01-27 08:38:15 51°21.788 2°49.547 4.9146 3.000011 30.865417 0.636162
2011-01-27 08:38:21 51°21.808 2°49.533 4.9162 3.002118 30.889365 0.670986
2011-01-27 08:38:26 51°21.825 2°49.521 4.912 3.00275 30.894118 0.636162
2011-01-27 08:38:31 51°21.841 2°49.509 4.9121 3.00454 30.910419 0.70581
2011-01-27 08:38:36 51°21.859 2°49.497 4.91 3.004962 30.911965 0.740634
2011-01-27 08:38:41 51°21.876 2°49.484 4.9124 3.004962 30.911965 0.740634
2011-01-27 08:38:46 51°21.893 2°49.472 4.9146 3.005488 30.916329 0.70581
2011-01-27 08:38:51 51°21.91 2°49.461 4.9205 3.006015 30.921504 0.636162
2011-01-27 08:38:56 51°21.927 2°49.449 4.9198 3.00612 30.922701 0.70581
2011-01-27 08:39:01 51°21.944 2°49.437 4.9202 3.00591 30.921118 0.70581
2011-01-27 08:39:06 51°21.961 2°49.425 4.9222 3.00591 30.921118 0.70581
2011-01-27 08:39:11 51°21.978 2°49.413 4.9211 3.006753 30.931508 0.636162
2011-01-27 08:39:16 51°21.996 2°49.401 4.9254 3.005804 30.921543 0.670986
2011-01-27 08:39:21 51°22.013 2°49.389 4.9237 3.006858 30.933517 0.636162
2011-01-27 08:39:26 51°22.03 2°49.377 4.9244 3.007701 30.942284 0.70581
2011-01-27 08:39:31 51°22.048 2°49.364 4.9219 3.008543 30.95024 0.670986
2011-01-27 08:39:36 51°22.065 2°49.352 4.9238 3.008017 30.942629 0.70581
2011-01-27 08:39:41 51°22.082 2°49.34 4.9259 3.008017 30.942629 0.70581
2011-01-27 08:39:46 51°22.099 2°49.328 4.9227 3.009702 30.961787 0.566514
2011-01-27 08:39:51 51°22.116 2°49.316 4.9254 3.010229 30.965337 0.670986
2011-01-27 08:39:55 51°22.13 2°49.306 4.9207 3.011177 30.976926 0.70581
2011-01-27 08:40:01 51°22.149 2°49.291 4.9261 3.010334 30.965722 0.636162
2011-01-27 08:40:06 51°22.166 2°49.278 4.9223 3.010756 30.969699 0.601338
2011-01-27 08:40:11 51°22.183 2°49.265 4.9231 3.010756 30.969699 0.601338
2011-01-27 08:40:15 51°22.196 2°49.255 4.917 3.011704 30.981288 0.636162
2011-01-27 08:40:21 51°22.217 2°49.24 4.9153 3.010861 30.971709 0.636162
2011-01-27 08:40:26 51°22.233 2°49.228 4.9214 3.010018 30.961318 0.670986
2011-01-27 08:40:31 51°22.251 2°49.216 4.9167 3.010123 30.961704 0.601338
2011-01-27 08:40:35 51°22.264 2°49.206 4.9146 3.011072 30.970855 0.601338
2011-01-27 08:40:41 51°22.284 2°49.192 4.9174 3.011072 30.970855 0.601338
2011-01-27 08:40:46 51°22.302 2°49.181 4.9154 3.009807 30.956488 0.636162
2011-01-27 08:40:51 51°22.319 2°49.169 4.915 3.01044 30.965295 0.601338
2011-01-27 08:40:56 51°22.336 2°49.157 4.9116 3.010229 30.964525 0.636162
2011-01-27 08:41:01 51°22.353 2°49.146 4.9095 3.009281 30.95375 0.636162
2011-01-27 08:41:06 51°22.37 2°49.133 4.9078 3.009281 30.95375 0.636162
2011-01-27 08:41:11 51°22.387 2°49.121 4.9058 3.008859 30.948961 0.566514
2011-01-27 08:41:16 51°22.404 2°49.109 4.9071 3.007911 30.941432 0.53169
2011-01-27 08:41:20 51°22.417 2°49.098 4.9102 3.008227 30.945024 0.601338
2011-01-27 08:41:26 51°22.437 2°49.083 4.908 3.008122 30.94545 0.566514
2011-01-27 08:41:31 51°22.454 2°49.071 4.9032 3.006542 30.929924 0.53169
2011-01-27 08:41:35 51°22.467 2°49.061 4.9092 3.006647 30.931122 0.636162
2011-01-27 08:41:41 51°22.487 2°49.046 4.9024 3.006647 30.931122 0.636162
2011-01-27 08:41:46 51°22.504 2°49.033 4.904 3.00591 30.924363 0.566514
2011-01-27 08:41:51 51°22.52 2°49.021 4.902 3.00591 30.925986 0.601338
2011-01-27 08:41:56 51°22.536 2°49.007 4.9052 3.00591 30.92842 0.496866
2011-01-27 08:42:01 51°22.553 2°48.995 4.8989 3.005278 30.921235 0.53169
2011-01-27 08:42:06 51°22.57 2°48.983 4.8936 3.004962 30.918454 0.53169
2011-01-27 08:42:11 51°22.587 2°48.97 4.8885 3.004962 30.918454 0.53169
2011-01-27 08:42:15 51°22.6 2°48.961 4.8875 3.004435 30.912466 0.566514
2011-01-27 08:42:21 51°22.621 2°48.946 4.8876 3.003592 30.902076 0.427218
2011-01-27 08:42:26 51°22.638 2°48.934 4.8875 3.004014 30.906865 0.53169
2011-01-27 08:42:31 51°22.656 2°48.923 4.8832 3.003698 30.905706 0.566514
2011-01-27 08:42:36 51°22.672 2°48.91 4.89 3.003698 30.905706 0.566514
2011-01-27 08:42:40 51°22.686 2°48.901 4.8905 3.002328 30.892571 0.601338
2011-01-27 08:42:46 51°22.706 2°48.885 4.8845 3.002328 30.893381 0.392394
2011-01-27 08:42:51 51°22.723 2°48.873 4.8874 3.002539 30.900642 0.496866
2011-01-27 08:42:55 51°22.737 2°48.864 4.8875 3.001591 30.893917 0.601338
2011-01-27 08:43:01 51°22.757 2°48.849 4.8855 3.00117 30.889126 0.53169
2011-01-27 08:43:06 51°22.775 2°48.838 4.8908 3.001064 30.890361 0.35757
2011-01-27 08:43:11 51°22.792 2°48.824 4.8907 3.001064 30.890361 0.35757
2011-01-27 08:43:16 51°22.809 2°48.813 4.8893 3.000327 30.883597 0.462042
2011-01-27 08:43:20 51°22.822 2°48.803 4.8913 3.000854 30.889587 0.496866
2011-01-27 08:43:26 51°22.843 2°48.788 4.8922 3.000538 30.887615 0.496866
2011-01-27 08:43:31 51°22.86 2°48.775 4.8981 3.001064 30.892794 0.601338
2011-01-27 08:43:35 51°22.873 2°48.765 4.898 3.001802 30.899558 0.53169
2011-01-27 08:43:41 51°22.893 2°48.75 4.9041 3.001802 30.899558 0.53169
2011-01-27 08:43:46 51°22.911 2°48.737 4.9017 3.001802 30.899558 0.601338
2011-01-27 08:43:51 51°22.927 2°48.725 4.9048 3.002434 30.907557 0.427218
2011-01-27 08:43:56 51°22.944 2°48.713 4.9074 3.002434 30.905123 0.462042
2011-01-27 08:44:01 51°22.961 2°48.702 4.9063 3.004751 30.933104 0.566514
2011-01-27 08:44:06 51°22.978 2°48.69 4.9086 3.006647 30.952234 0.392394
2011-01-27 08:44:11 51°22.994 2°48.678 4.91 3.006647 30.952234 0.392394
2011-01-27 08:44:16 51°23.011 2°48.666 4.9125 3.008122 30.964945 0.53169
2011-01-27 08:44:21 51°23.027 2°48.653 4.9096 3.009597 30.979279 0.53169
2011-01-27 08:44:26 51°23.044 2°48.641 4.9102 3.011283 30.997636 0.427218
2011-01-27 08:44:31 51°23.061 2°48.628 4.9089 3.012336 31.007177 0.462042
2011-01-27 08:44:35 51°23.074 2°48.617 4.9077 3.012336 31.007177 0.462042
2011-01-27 08:44:41 51°23.094 2°48.602 4.9054 3.013179 31.014321 0.496866
2011-01-27 08:44:46 51°23.111 2°48.588 4.9057 3.014654 31.031909 0.496866
2011-01-27 08:44:51 51°23.128 2°48.576 4.9049 3.01518 31.035457 0.601338
2011-01-27 08:44:55 51°23.14 2°48.564 4.9132 3.016866 31.053813 0.462042
2011-01-27 08:45:01 51°23.161 2°48.55 4.9117 3.016866 31.052999 0.462042
2011-01-27 08:45:06 51°23.178 2°48.538 4.9207 3.017709 31.061769 0.392394
2011-01-27 08:45:11 51°23.195 2°48.526 4.9236 3.017709 31.061769 0.392394
2011-01-27 08:45:16 51°23.212 2°48.514 4.9272 3.018446 31.071788 0.427218
2011-01-27 08:45:20 51°23.226 2°48.504 4.9349 3.019183 31.078545 0.462042
2011-01-27 08:45:26 51°23.246 2°48.489 4.9265 3.019921 31.087749 0.35757
2011-01-27 08:45:31 51°23.263 2°48.476 4.9273 3.020974 31.101365 0.53169
2011-01-27 08:45:35 51°23.277 2°48.466 4.9259 3.021606 31.10774 0.496866
2011-01-27 08:45:41 51°23.297 2°48.451 4.9221 3.021606 31.10774 0.496866
2011-01-27 08:45:46 51°23.313 2°48.437 4.9197 3.024135 31.134056 0.427218
2011-01-27 08:45:51 51°23.331 2°48.426 4.9167 3.02719 31.163911 0.496866
2011-01-27 08:45:56 51°23.347 2°48.413 4.9227 3.029191 31.181777 0.392394
2011-01-27 08:46:01 51°23.364 2°48.401 4.9261 3.032036 31.211682 0.392394
2011-01-27 08:46:06 51°23.381 2°48.39 4.9294 3.032036 31.211682 0.392394
2011-01-27 08:46:11 51°23.398 2°48.378 4.9394 3.033827 31.23124 0.427218
2011-01-27 08:46:16 51°23.415 2°48.366 4.9534 3.034353 31.238052 0.35757
2011-01-27 08:46:21 51°23.432 2°48.354 4.9651 3.034143 31.237294 0.427218
2011-01-27 08:46:26 51°23.449 2°48.343 4.9699 3.034037 31.237734 0.427218
2011-01-27 08:46:31 51°23.466 2°48.331 4.9775 3.034248 31.240951 0.35757
2011-01-27 08:46:35 51°23.48 2°48.322 4.9808 3.034985 31.248523 0.392394
2011-01-27 08:46:41 51°23.5 2°48.308 4.9814 3.034985 31.248523 0.392394
2011-01-27 08:46:46 51°23.517 2°48.296 4.9833 3.036566 31.263227 0.392394
2011-01-27 08:46:51 51°23.534 2°48.284 4.9835 3.040569 31.304682 0.462042
2011-01-27 08:46:55 51°23.547 2°48.276 4.9904 3.044678 31.342404 0.322746
2011-01-27 08:47:01 51°23.567 2°48.261 4.9831 3.051525 31.411282 0.35757
2011-01-27 08:47:06 51°23.584 2°48.249 4.9787 3.056688 31.460141 0.427218
2011-01-27 08:47:11 51°23.601 2°48.237 4.9818 3.056688 31.460141 0.427218
2011-01-27 08:47:15 51°23.614 2°48.228 4.9771 3.059637 31.48711 0.392394
2011-01-27 08:47:21 51°23.634 2°48.212 4.9811 3.063641 31.528537 0.392394
2011-01-27 08:47:26 51°23.65 2°48.202 4.9806 3.065537 31.545986 0.35757
2011-01-27 08:47:31 51°23.667 2°48.189 4.9839 3.067117 31.561489 0.322746
2011-01-27 08:47:36 51°23.684 2°48.179 4.9792 3.06796 31.570252 0.427218
2011-01-27 08:47:40 51°23.697 2°48.168 4.9803 3.06796 31.570252 0.427218
2011-01-27 08:47:46 51°23.717 2°48.155 4.9813 3.068066 31.572278 0.392394
2011-01-27 08:47:51 51°23.733 2°48.144 4.9815 3.067434 31.565085 0.35757
2011-01-27 08:47:55 51°23.747 2°48.134 4.9845 3.067328 31.56306 0.35757
2011-01-27 08:48:01 51°23.767 2°48.12 4.981 3.066485 31.554296 0.322746
2011-01-27 08:48:06 51°23.785 2°48.11 4.9811 3.067012 31.559463 0.322746
2011-01-27 08:48:11 51°23.801 2°48.097 4.9849 3.067012 31.559463 0.322746
2011-01-27 08:48:16 51°23.818 2°48.086 4.9811 3.066907 31.557438 0.253098
2011-01-27 08:48:21 51°23.835 2°48.074 4.9825 3.067223 31.562687 0.392394
2011-01-27 08:48:26 51°23.853 2°48.063 4.9799 3.068171 31.573477 0.322746
2011-01-27 08:48:31 51°23.869 2°48.05 4.981 3.068066 31.571451 0.322746
2011-01-27 08:48:36 51°23.886 2°48.04 4.9833 3.068909 31.581869 0.35757
2011-01-27 08:48:41 51°23.903 2°48.027 4.9819 3.068909 31.581869 0.35757
2011-01-27 08:48:46 51°23.919 2°48.016 4.9846 3.069225 31.584638 0.322746
2011-01-27 08:48:51 51°23.935 2°48.004 4.9851 3.070067 31.594229 0.35757
2011-01-27 08:48:55 51°23.948 2°47.994 4.9865 3.070594 31.599397 0.287922
2011-01-27 08:49:01 51°23.968 2°47.98 4.9849 3.070594 31.598569 0.253098
2011-01-27 08:49:06 51°23.985 2°47.967 4.9825 3.071121 31.605391 0.287922
2011-01-27 08:49:11 51°24.002 2°47.956 4.9834 3.071121 31.605391 0.287922
2011-01-27 08:49:15 51°24.015 2°47.945 4.9864 3.070173 31.592947 0.322746
2011-01-27 08:49:21 51°24.035 2°47.932 4.9859 3.069962 31.591376 0.287922
2011-01-27 08:49:26 51°24.052 2°47.92 4.9911 3.070067 31.592575 0.35757
2011-01-27 08:49:31 51°24.069 2°47.907 4.9905 3.069014 31.57976 0.253098
2011-01-27 08:49:36 51°24.086 2°47.895 4.9899 3.068487 31.572939 0.253098
2011-01-27 08:49:41 51°24.102 2°47.884 4.9874 3.068487 31.572939 0.253098
2011-01-27 08:49:46 51°24.12 2°47.872 4.9868 3.070173 31.592947 0.18345
2011-01-27 08:49:51 51°24.137 2°47.861 4.9897 3.070383 31.595344 0.392394
2011-01-27 08:49:55 51°24.15 2°47.851 4.9952 3.071332 31.605307 0.253098
2011-01-27 08:50:01 51°24.171 2°47.837 4.9918 3.070805 31.597658 0.392394
2011-01-27 08:50:06 51°24.188 2°47.826 4.9883 3.071121 31.599599 0.287922
2011-01-27 08:50:11 51°24.205 2°47.814 4.9914 3.071121 31.599599 0.287922
2011-01-27 08:50:16 51°24.221 2°47.802 4.9931 3.071964 31.607534 0.253098
2011-01-27 08:50:21 51°24.238 2°47.791 4.979 3.072174 31.609104 0.322746
2011-01-27 08:50:26 51°24.255 2°47.779 4.9815 3.071542 31.601912 0.322746
2011-01-27 08:50:31 51°24.272 2°47.769 4.9779 3.071753 31.605964 0.218274
2011-01-27 08:50:35 51°24.285 2°47.759 4.978 3.071542 31.601085 0.253098
2011-01-27 08:50:41 51°24.306 2°47.747 4.9756 3.071542 31.601085 0.253098
2011-01-27 08:50:46 51°24.323 2°47.734 4.9778 3.070594 31.590298 0.287922
2011-01-27 08:50:51 51°24.339 2°47.723 4.9769 3.069541 31.579966 0.287922
2011-01-27 08:50:56 51°24.355 2°47.71 4.9802 3.069119 31.573518 0.35757
2011-01-27 08:51:01 51°24.372 2°47.698 4.9779 3.069119 31.577651 0.218274
2011-01-27 08:51:06 51°24.389 2°47.685 4.9718 3.068276 31.569715 0.218274
2011-01-27 08:51:11 51°24.405 2°47.672 4.971 3.068276 31.569715 0.218274
2011-01-27 08:51:15 51°24.419 2°47.663 4.9719 3.067012 31.556158 0.218274
2011-01-27 08:51:21 51°24.439 2°47.648 4.9695 3.067434 31.565911 0.322746
2011-01-27 08:51:26 51°24.456 2°47.638 4.9709 3.066064 31.551153 0.148626
2011-01-27 08:51:31 51°24.473 2°47.624 4.9751 3.066169 31.553179 0.218274
2011-01-27 08:51:36 51°24.49 2°47.613 4.9683 3.066169 31.553179 0.218274
2011-01-27 08:51:41 51°24.507 2°47.6 4.9708 3.0648 31.536769 0.287922
2011-01-27 08:51:46 51°24.524 2°47.589 4.971 3.064062 31.530855 0.218274
2011-01-27 08:51:51 51°24.541 2°47.577 4.9723 3.065116 31.545321 0.322746
2011-01-27 08:51:55 51°24.555 2°47.569 4.963 3.064378 31.536929 0.218274
2011-01-27 08:52:01 51°24.576 2°47.554 4.9705 3.063852 31.531761 0.253098
2011-01-27 08:52:06 51°24.594 2°47.543 4.9608 3.062693 31.516097 0.287922
2011-01-27 08:52:11 51°24.611 2°47.53 4.9658 3.062693 31.516097 0.287922
2011-01-27 08:52:16 51°24.628 2°47.52 4.964 3.062377 31.513326 0.18345
2011-01-27 08:52:21 51°24.645 2°47.506 4.9691 3.061323 31.502165 0.253098
2011-01-27 08:52:26 51°24.663 2°47.495 4.9608 3.060691 31.496623 0.218274
2011-01-27 08:52:31 51°24.68 2°47.482 4.9646 3.060059 31.490255 0.253098
2011-01-27 08:52:36 51°24.697 2°47.471 4.9602 3.0589 31.477894 0.287922
2011-01-27 08:52:41 51°24.714 2°47.459 4.9583 3.0589 31.477894 0.287922
2011-01-27 08:52:46 51°24.731 2°47.448 4.9572 3.058479 31.476398 0.253098
2011-01-27 08:52:51 51°24.748 2°47.436 4.9581 3.058057 31.471603 0.18345
2011-01-27 08:52:56 51°24.765 2°47.426 4.9568 3.057214 31.462013 0.18345
2011-01-27 08:53:01 51°24.782 2°47.414 4.953 3.056477 31.452798 0.287922
2011-01-27 08:53:06 51°24.798 2°47.402 4.9486 3.055739 31.44688 0.253098
2011-01-27 08:53:11 51°24.815 2°47.39 4.9464 3.055739 31.44688 0.253098
2011-01-27 08:53:16 51°24.832 2°47.379 4.9499 3.055002 31.437666 0.18345
2011-01-27 08:53:21 51°24.848 2°47.367 4.9465 3.054686 31.437364 0.287922
2011-01-27 08:53:26 51°24.865 2°47.355 4.9494 3.053843 31.428598 0.253098
2011-01-27 08:53:31 51°24.882 2°47.343 4.9452 3.052368 31.414287 0.218274
2011-01-27 08:53:36 51°24.898 2°47.331 4.9451 3.052368 31.414287 0.218274
2011-01-27 08:53:41 51°24.915 2°47.32 4.9474 3.051841 31.409116 0.18345
2011-01-27 08:53:46 51°24.932 2°47.308 4.9433 3.051209 31.404393 0.287922
2011-01-27 08:53:51 51°24.949 2°47.296 4.9363 3.05005 31.393675 0.218274
2011-01-27 08:53:55 51°24.963 2°47.286 4.9404 3.049313 31.385284 0.113802
2011-01-27 08:54:01 51°24.984 2°47.274 4.9444 3.048786 31.380936 0.148626
2011-01-27 08:54:06 51°25.001 2°47.262 4.9409 3.048259 31.375764 0.113802
2011-01-27 08:54:11 51°25.019 2°47.252 4.9337 3.048259 31.375764 0.113802
2011-01-27 08:54:16 51°25.036 2°47.24 4.9346 3.047311 31.364976 0.287922
2011-01-27 08:54:21 51°25.054 2°47.229 4.9319 3.046995 31.363024 0.218274
2011-01-27 08:54:26 51°25.071 2°47.217 4.9381 3.046468 31.358674 0.218274
2011-01-27 08:54:31 51°25.089 2°47.205 4.9287 3.045731 31.352748 0.18345
2011-01-27 08:54:35 51°25.103 2°47.195 4.9277 3.045204 31.347576 0.218274
2011-01-27 08:54:41 51°25.124 2°47.182 4.9238 3.045204 31.347576 0.218274
2011-01-27 08:54:46 51°25.141 2°47.169 4.9303 3.044151 31.33641 0.218274
2011-01-27 08:54:51 51°25.159 2°47.158 4.9272 3.043203 31.326442 0.113802
2011-01-27 08:54:56 51°25.175 2°47.145 4.9213 3.042571 31.322534 0.18345
2011-01-27 08:55:01 51°25.193 2°47.133 4.9201 3.041622 31.313387 0.148626
2011-01-27 08:55:06 51°25.211 2°47.122 4.9191 3.041622 31.313387 0.148626
2011-01-27 08:55:11 51°25.229 2°47.111 4.9184 3.041201 31.309413 0.218274
2011-01-27 08:55:16 51°25.246 2°47.099 4.9171 3.040569 31.304682 0.218274
2011-01-27 08:55:21 51°25.264 2°47.089 4.921 3.039832 31.297931 0.18345
2011-01-27 08:55:26 51°25.281 2°47.076 4.9173 3.039199 31.289917 0.148626
2011-01-27 08:55:31 51°25.299 2°47.066 4.9172 3.038462 31.284807 0.18345
2011-01-27 08:55:36 51°25.316 2°47.053 4.9177 3.038462 31.284807 0.18345
2011-01-27 08:55:41 51°25.333 2°47.044 4.9104 3.038041 31.280832 0.148626
2011-01-27 08:55:46 51°25.35 2°47.032 4.9085 3.036776 31.269725 0.18345
2011-01-27 08:55:51 51°25.367 2°47.02 4.9146 3.035618 31.257356 0.218274
2011-01-27 08:55:55 51°25.38 2°47.01 4.9066 3.03488 31.249783 0.218274
2011-01-27 08:56:01 51°25.401 2°46.996 4.9086 3.033721 31.237415 0.113802
2011-01-27 08:56:06 51°25.418 2°46.984 4.9015 3.033195 31.230601 0.148626
2011-01-27 08:56:11 51°25.436 2°46.973 4.9028 3.033195 31.230601 0.148626
2011-01-27 08:56:15 51°25.45 2°46.962 4.9028 3.032773 31.227444 0.18345
2011-01-27 08:56:21 51°25.471 2°46.949 4.9037 3.032246 31.222268 0.078977
2011-01-27 08:56:26 51°25.488 2°46.937 4.9047 3.031825 31.21993 0.113802
2011-01-27 08:56:31 51°25.505 2°46.925 4.9024 3.032563 31.23242 0.18345
2011-01-27 08:56:36 51°25.522 2°46.913 4.9109 3.032352 31.230022 0.078977
2011-01-27 08:56:41 51°25.539 2°46.902 4.9 3.032352 31.230022 0.078977
2011-01-27 08:56:46 51°25.557 2°46.89 4.9012 3.032457 31.23368 0.218274
2011-01-27 08:56:51 51°25.575 2°46.879 4.9036 3.032773 31.238918 0.113802
2011-01-27 08:56:55 51°25.589 2°46.869 4.9005 3.032984 31.243776 0.18345
2011-01-27 08:57:01 51°25.609 2°46.854 4.9061 3.032668 31.239358 0.148626
2011-01-27 08:57:06 51°25.627 2°46.843 4.904 3.032668 31.239358 0.148626
2011-01-27 08:57:11 51°25.644 2°46.829 4.9043 3.031931 31.230143 0.18345
2011-01-27 08:57:16 51°25.662 2°46.819 4.9048 3.032773 31.239737 0.078977
2011-01-27 08:57:21 51°25.68 2°46.806 4.8977 3.0333 31.247375 0.18345
2011-01-27 08:57:26 51°25.697 2°46.794 4.8949 3.033511 31.250594 0.148626
2011-01-27 08:57:31 51°25.714 2°46.781 4.8929 3.034038 31.257412 0.113802
2011-01-27 08:57:35 51°25.728 2°46.772 4.8911 3.034564 31.262589 0.113802
2011-01-27 08:57:41 51°25.749 2°46.757 4.8848 3.034564 31.262589 0.113802
2011-01-27 08:57:46 51°25.766 2°46.745 4.8874 3.035196 31.269787 0.113802
2011-01-27 08:57:51 51°25.783 2°46.733 4.8842 3.034986 31.267388 0.078977
2011-01-27 08:57:55 51°25.797 2°46.723 4.8748 3.034038 31.256591 0.148626
2011-01-27 08:58:01 51°25.818 2°46.708 4.8773 3.033616 31.255075 0.148626
2011-01-27 08:58:06 51°25.835 2°46.695 4.8781 3.032879 31.247498 0.113802
2011-01-27 08:58:11 51°25.852 2°46.683 4.8752 3.032879 31.247498 0.113802
2011-01-27 08:58:16 51°25.869 2°46.67 4.8736 3.031825 31.239602 0.148626
2011-01-27 08:58:21 51°25.886 2°46.657 4.8782 3.031193 31.234864 0.113802
2011-01-27 08:58:26 51°25.903 2°46.644 4.8814 3.030561 31.228485 0.113802
2011-01-27 08:58:31 51°25.92 2°46.632 4.8875 3.029929 31.223747 0.148626
2011-01-27 08:58:36 51°25.937 2°46.619 4.8918 3.029508 31.224687 0.113802
2011-01-27 08:58:41 51°25.954 2°46.606 4.8929 3.029508 31.224687 0.113802
2011-01-27 08:58:46 51°25.972 2°46.596 4.8946 3.029086 31.221527 0.113802
2011-01-27 08:58:51 51°25.989 2°46.581 4.9007 3.029508 31.229609 0.148626
2011-01-27 08:58:55 51°26.003 2°46.573 4.9056 3.030245 31.23801 0.148626
2011-01-27 08:59:01 51°26.024 2°46.559 4.9048 3.032984 31.268398 0.148626
2011-01-27 08:59:06 51°26.041 2°46.546 4.8984 3.035407 31.291077 0.113802
2011-01-27 08:59:11 51°26.059 2°46.534 4.9051 3.035407 31.291077 0.113802
2011-01-27 08:59:16 51°26.075 2°46.521 4.9041 3.037093 31.311106 0.078977
2011-01-27 08:59:21 51°26.092 2°46.509 4.9009 3.039411 31.331758 0.113802
2011-01-27 08:59:26 51°26.109 2°46.495 4.9038 3.041939 31.358099 0.113802
2011-01-27 08:59:31 51°26.126 2°46.483 4.905 3.043835 31.374766 0.113802
2011-01-27 08:59:35 51°26.14 2°46.473 4.9108 3.044783 31.383921 0.078977
2011-01-27 08:59:41 51°26.161 2°46.458 4.9145 3.044783 31.383921 0.078977
2011-01-27 08:59:46 51°26.178 2°46.446 4.922 3.046153 31.399527 0.148626
2011-01-27 08:59:51 51°26.196 2°46.436 4.9241 3.047101 31.408682 0.078977
2011-01-27 08:59:56 51°26.213 2°46.423 4.9255 3.047944 31.417461 0.148626
2011-01-27 09:00:01 51°26.23 2°46.411 4.9257 3.04826 31.416115 0.113802
2011-01-27 09:00:06 51°26.247 2°46.399 4.9226 3.050367 31.443423 0.044153
2011-01-27 09:00:11 51°26.265 2°46.387 4.92 3.050367 31.443423 0.044153
2011-01-27 09:00:16 51°26.281 2°46.374 4.9269 3.051631 31.455353 0.078977
2011-01-27 09:00:21 51°26.298 2°46.362 4.9494 3.05416 31.481689 0.044153
2011-01-27 09:00:26 51°26.314 2°46.349 4.9724 3.055951 31.497967 0.044153
2011-01-27 09:00:31 51°26.331 2°46.338 5.0013 3.057952 31.519951 0.078977
2011-01-27 09:00:36 51°26.347 2°46.324 5.0208 3.057952 31.519951 0.078977
2011-01-27 09:00:41 51°26.364 2°46.314 5.0483 3.059533 31.532169 0.009329
2011-01-27 09:00:46 51°26.38 2°46.3 5.0659 3.060691 31.54372 0.113802
2011-01-27 09:00:51 51°26.398 2°46.29 5.0887 3.061745 31.555726 -0.025495
2011-01-27 09:00:56 51°26.415 2°46.277 5.0985 3.063115 31.566365 0.044153
2011-01-27 09:01:01 51°26.432 2°46.267 5.1159 3.067329 31.606098 0.044153
2011-01-27 09:01:06 51°26.448 2°46.254 5.1205 3.074177 31.669189 0.009329
2011-01-27 09:01:11 51°26.465 2°46.243 5.1313 3.074177 31.669189 0.009329
2011-01-27 09:01:15 51°26.478 2°46.233 5.1407 3.083975 31.754205 0.044153
2011-01-27 09:01:21 51°26.498 2°46.22 5.1544 3.096091 31.872193 0.044153
2011-01-27 09:01:26 51°26.515 2°46.209 5.1535 3.10768 31.977426 0.009329
2011-01-27 09:01:31 51°26.533 2°46.198 5.1591 3.117795 32.069962 0.078977
2011-01-27 09:01:36 51°26.55 2°46.187 5.163 3.126435 32.154035 0.044153
2011-01-27 09:01:41 51°26.567 2°46.175 5.1679 3.126435 32.154035 0.044153
2011-01-27 09:01:46 51°26.584 2°46.163 5.1624 3.133284 32.215167 0.044153
2011-01-27 09:01:51 51°26.601 2°46.152 5.1674 3.137182 32.246906 0.078977
2011-01-27 09:01:56 51°26.618 2°46.141 5.1755 3.142977 32.297676 0.078977
2011-01-27 09:02:01 51°26.635 2°46.129 5.1718 3.147087 32.334303 0.078977
2011-01-27 09:02:06 51°26.652 2°46.118 5.174 3.151196 32.373447 0.009329
2011-01-27 09:02:11 51°26.669 2°46.108 5.1754 3.151196 32.373447 0.009329
2011-01-27 09:02:16 51°26.685 2°46.096 5.1769 3.154568 32.404195 -0.025495
2011-01-27 09:02:21 51°26.702 2°46.086 5.1729 3.157307 32.429435 -0.025495
2011-01-27 09:02:26 51°26.72 2°46.076 5.167 3.159942 32.455164 -0.025495
2011-01-27 09:02:31 51°26.737 2°46.064 5.1672 3.160995 32.462917 0.044153
2011-01-27 09:02:36 51°26.754 2°46.055 5.1751 3.160995 32.462917 0.044153
2011-01-27 09:02:41 51°26.772 2°46.043 5.17 3.161417 32.463482 -0.025495
2011-01-27 09:02:46 51°26.788 2°46.032 5.1767 3.161838 32.467428 0.044153
2011-01-27 09:02:51 51°26.805 2°46.022 5.1738 3.16247 32.471233 0.044153
2011-01-27 09:02:56 51°26.822 2°46.01 5.1743 3.163524 32.481521 0.009329
2011-01-27 09:03:01 51°26.84 2°46 5.1677 3.163629 32.481873 0.009329
2011-01-27 09:03:06 51°26.856 2°45.988 5.1718 3.164262 32.48906 -0.025495
2011-01-27 09:03:11 51°26.874 2°45.977 5.1758 3.164262 32.48906 -0.025495
2011-01-27 09:03:15 51°26.887 2°45.969 5.172 3.164999 32.499137 0.009329
2011-01-27 09:03:21 51°26.909 2°45.957 5.1634 3.164472 32.491455 0.044153
2011-01-27 09:03:26 51°26.927 2°45.948 5.1636 3.164999 32.496599 -0.025495
2011-01-27 09:03:31 51°26.944 2°45.937 5.1696 3.164156 32.487862 0.078977
2011-01-27 09:03:36 51°26.962 2°45.926 5.1731 3.164156 32.487862 0.009329
2011-01-27 09:03:41 51°26.979 2°45.917 5.1625 3.164156 32.487862 0.009329
2011-01-27 09:03:46 51°26.997 2°45.906 5.16 3.164999 32.499984 0.009329
2011-01-27 09:03:51 51°27.014 2°45.896 5.1655 3.164578 32.494346 0.044153
2011-01-27 09:03:56 51°27.032 2°45.886 5.1667 3.16384 32.484268 0.009329
2011-01-27 09:04:01 51°27.049 2°45.875 5.1606 3.164156 32.491246 0.009329
2011-01-27 09:04:06 51°27.066 2°45.864 5.1544 3.164578 32.496884 0.009329
2011-01-27 09:04:11 51°27.084 2°45.854 5.1544 3.164578 32.496884 0.009329
2011-01-27 09:04:16 51°27.102 2°45.843 5.1567 3.164367 32.492796 0.009329
2011-01-27 09:04:21 51°27.119 2°45.832 5.1539 3.164051 32.489202 0.044153
2011-01-27 09:04:26 51°27.137 2°45.823 5.1539 3.164367 32.497873 0.044153
2011-01-27 09:04:31 51°27.155 2°45.813 5.1532 3.164578 32.499423 0.044153
2011-01-27 09:04:36 51°27.172 2°45.802 5.1524 3.164367 32.497027 0.113802
2011-01-27 09:04:41 51°27.189 2°45.793 5.1549 3.164367 32.497027 0.113802
2011-01-27 09:04:46 51°27.206 2°45.783 5.1462 3.164683 32.503161 0.009329
2011-01-27 09:04:51 51°27.223 2°45.772 5.1519 3.164578 32.506196 0.009329
2011-01-27 09:04:55 51°27.237 2°45.763 5.144 3.164894 32.510638 0.044153
2011-01-27 09:05:01 51°27.257 2°45.75 5.1424 3.164683 32.508241 -0.025495
2011-01-27 09:05:06 51°27.274 2°45.739 5.1418 3.164578 32.507043 -0.025495
2011-01-27 09:05:11 51°27.291 2°45.729 5.1414 3.164578 32.507043 -0.025495
2011-01-27 09:05:16 51°27.309 2°45.719 5.1371 3.164156 32.502249 -0.025495
2011-01-27 09:05:21 51°27.326 2°45.708 5.1363 3.163524 32.496752 -0.025495
2011-01-27 09:05:26 51°27.343 2°45.697 5.1359 3.162787 32.490902 0.009329
2011-01-27 09:05:31 51°27.361 2°45.687 5.139 3.162787 32.493442 0.078977
2011-01-27 09:05:35 51°27.375 2°45.679 5.1393 3.162471 32.489847 0.009329
2011-01-27 09:05:41 51°27.396 2°45.666 5.1377 3.162471 32.489847 0.009329
2011-01-27 09:05:46 51°27.414 2°45.656 5.1368 3.162365 32.491188 -0.025495
2011-01-27 09:05:51 51°27.431 2°45.644 5.1451 3.161944 32.488933 0.009329
2011-01-27 09:05:56 51°27.448 2°45.634 5.142 3.162049 32.492672 0.009329
2011-01-27 09:06:01 51°27.465 2°45.622 5.1431 3.161838 32.491968 0.009329
2011-01-27 09:06:06 51°27.483 2°45.612 5.1472 3.161838 32.491968 0.009329
2011-01-27 09:06:11 51°27.501 2°45.602 5.1411 3.161312 32.485974 0.009329
2011-01-27 09:06:15 51°27.515 2°45.593 5.1397 3.161522 32.489219 0.009329
2011-01-27 09:06:21 51°27.536 2°45.581 5.1411 3.161733 32.492463 -0.025495
2011-01-27 09:06:26 51°27.554 2°45.572 5.1446 3.161733 32.490769 -0.025495
2011-01-27 09:06:31 51°27.572 2°45.56 5.1446 3.162155 32.493871 0.009329
2011-01-27 09:06:36 51°27.589 2°45.55 5.14 3.162892 32.501416 0.009329
2011-01-27 09:06:41 51°27.606 2°45.539 5.1461 3.162892 32.501416 0.009329
2011-01-27 09:06:46 51°27.624 2°45.528 5.1445 3.162998 32.50092 -0.025495
2011-01-27 09:06:51 51°27.642 2°45.517 5.1433 3.163524 32.506067 -0.025495
2011-01-27 09:06:55 51°27.656 2°45.509 5.1519 3.163208 32.505859 -0.025495
2011-01-27 09:07:01 51°27.675 2°45.496 5.1441 3.16363 32.509808 -0.060319
2011-01-27 09:07:06 51°27.693 2°45.487 5.1472 3.164262 32.516154 -0.025495
2011-01-27 09:07:11 51°27.709 2°45.475 5.1478 3.164262 32.516154 -0.025495
2011-01-27 09:07:15 51°27.723 2°45.466 5.1443 3.164157 32.515802 0.009329
2011-01-27 09:07:21 51°27.743 2°45.454 5.1421 3.164367 32.517352 0.009329
2011-01-27 09:07:26 51°27.76 2°45.443 5.1443 3.164051 32.512061 -0.025495
2011-01-27 09:07:31 51°27.777 2°45.433 5.1376 3.164157 32.510718 -0.025495
2011-01-27 09:07:36 51°27.795 2°45.423 5.1395 3.164157 32.510718 -0.025495
2011-01-27 09:07:41 51°27.812 2°45.413 5.1377 3.163946 32.508321 -0.025495
2011-01-27 09:07:46 51°27.83 2°45.402 5.1367 3.164262 32.512764 -0.025495
2011-01-27 09:07:51 51°27.847 2°45.392 5.1349 3.16384 32.507122 -0.025495
2011-01-27 09:07:55 51°27.861 2°45.384 5.1363 3.16363 32.504725 0.009329
2011-01-27 09:08:01 51°27.882 2°45.372 5.137 3.16384 32.507969 0.009329
2011-01-27 09:08:06 51°27.899 2°45.36 5.1362 3.16384 32.507969 0.009329
2011-01-27 09:08:11 51°27.916 2°45.35 5.1315 3.16363 32.508113 -0.025495
2011-01-27 09:08:16 51°27.933 2°45.338 5.1308 3.163419 32.505716 0.009329
2011-01-27 09:08:21 51°27.951 2°45.329 5.1317 3.163314 32.506211 -0.025495
2011-01-27 09:08:26 51°27.969 2°45.318 5.1324 3.163103 32.506355 -0.025495
2011-01-27 09:08:31 51°27.986 2°45.308 5.1302 3.162471 32.50255 -0.025495
2011-01-27 09:08:36 51°28.003 2°45.297 5.1343 3.161522 32.490065 0.009329
2011-01-27 09:08:41 51°28.02 2°45.288 5.1342 3.161522 32.490065 0.009329
2011-01-27 09:08:46 51°28.037 2°45.277 5.1268 3.161944 32.494861 0.009329
2011-01-27 09:08:51 51°28.055 2°45.267 5.1263 3.161417 32.492254 0.009329
2011-01-27 09:08:55 51°28.069 2°45.258 5.1209 3.161417 32.491407 0.009329
2011-01-27 09:09:01 51°28.091 2°45.246 5.1202 3.161417 32.493101 0.009329
2011-01-27 09:09:06 51°28.108 2°45.234 5.1283 3.161417 32.493101 0.009329
2011-01-27 09:09:11 51°28.125 2°45.223 5.1226 3.161101 32.492045 -0.025495
2011-01-27 09:09:16 51°28.142 2°45.211 5.1183 3.161522 32.495147 -0.025495
2011-01-27 09:09:21 51°28.16 2°45.201 5.1137 3.160469 32.481463 -0.025495
2011-01-27 09:09:26 51°28.177 2°45.19 5.122 3.159942 32.479702 0.009329
2011-01-27 09:09:31 51°28.194 2°45.18 5.1203 3.159731 32.477304 -0.025495
2011-01-27 09:09:36 51°28.212 2°45.169 5.1172 3.15931 32.474201 0.009329
2011-01-27 09:09:41 51°28.229 2°45.159 5.1099 3.15931 32.474201 0.009329
2011-01-27 09:09:46 51°28.247 2°45.148 5.1107 3.159099 32.471803 -0.025495
2011-01-27 09:09:51 51°28.265 2°45.138 5.1082 3.158677 32.467006 -0.060319
2011-01-27 09:09:55 51°28.278 2°45.129 5.1082 3.158256 32.465596 -0.025495
2011-01-27 09:10:01 51°28.299 2°45.116 5.1062 3.157834 32.461646 0.009329
2011-01-27 09:10:06 51°28.317 2°45.106 5.1096 3.157413 32.459389 0.009329
2011-01-27 09:10:11 51°28.334 2°45.095 5.1057 3.157413 32.459389 0.009329
2011-01-27 09:10:16 51°28.352 2°45.085 5.1011 3.157202 32.45699 -0.025495
2011-01-27 09:10:21 51°28.369 2°45.075 5.102 3.156465 32.452827 0.009329
2011-01-27 09:10:26 51°28.386 2°45.065 5.1061 3.155306 32.440481 0.009329
2011-01-27 09:10:31 51°28.403 2°45.055 5.1059 3.155727 32.446971 0.009329
2011-01-27 09:10:36 51°28.421 2°45.045 5.1019 3.155306 32.444712 -0.060319
2011-01-27 09:10:41 51°28.438 2°45.035 5.1028 3.155306 32.444712 -0.060319
2011-01-27 09:10:46 51°28.455 2°45.024 5.0972 3.154884 32.441607 -0.025495
2011-01-27 09:10:51 51°28.473 2°45.015 5.0977 3.15499 32.44196 -0.025495
2011-01-27 09:10:56 51°28.491 2°45.005 5.0943 3.154147 32.434903 -0.025495
2011-01-27 09:11:01 51°28.508 2°44.995 5.1011 3.154147 32.434903 -0.060319
2011-01-27 09:11:06 51°28.526 2°44.985 5.0967 3.153831 32.433843 -0.025495
2011-01-27 09:11:11 51°28.543 2°44.974 5.0979 3.153831 32.433843 -0.025495
2011-01-27 09:11:15 51°28.558 2°44.966 5.0944 3.153409 32.429044 0.009329
2011-01-27 09:11:21 51°28.579 2°44.953 5.0924 3.153093 32.4246 -0.025495
2011-01-27 09:11:26 51°28.597 2°44.942 5.0929 3.152777 32.425231 -0.025495
2011-01-27 09:11:31 51°28.614 2°44.933 5.0942 3.152671 32.424032 -0.025495
2011-01-27 09:11:35 51°28.629 2°44.924 5.0961 3.152671 32.424032 -0.025495
2011-01-27 09:11:41 51°28.649 2°44.913 5.0926 3.152355 32.422971 -0.025495
2011-01-27 09:11:46 51°28.667 2°44.903 5.0981 3.152039 32.418526 -0.025495
2011-01-27 09:11:51 51°28.684 2°44.894 5.0917 3.151829 32.416126 -0.025495
2011-01-27 09:11:55 51°28.698 2°44.885 5.0908 3.151618 32.414573 -0.060319
2011-01-27 09:12:01 51°28.719 2°44.874 5.0897 3.151512 32.415911 -0.025495
2011-01-27 09:12:06 51°28.736 2°44.863 5.0914 3.151091 32.410266 -0.060319
2011-01-27 09:12:11 51°28.754 2°44.853 5.0815 3.151091 32.410266 -0.060319
2011-01-27 09:12:16 51°28.772 2°44.842 5.0824 3.150775 32.407513 0.009329
2011-01-27 09:12:21 51°28.79 2°44.832 5.0811 3.151091 32.410266 -0.060319
2011-01-27 09:12:26 51°28.807 2°44.823 5.0821 3.150353 32.402714 -0.025495
2011-01-27 09:12:31 51°28.825 2°44.813 5.0823 3.149932 32.39876 -0.060319
2011-01-27 09:12:36 51°28.843 2°44.802 5.0787 3.149932 32.39876 -0.025495
2011-01-27 09:12:41 51°28.86 2°44.792 5.0782 3.149932 32.39876 -0.025495
2011-01-27 09:12:46 51°28.878 2°44.781 5.076 3.149405 32.39699 -0.025495
2011-01-27 09:12:51 51°28.895 2°44.771 5.0757 3.149089 32.394236 -0.025495
2011-01-27 09:12:56 51°28.912 2°44.76 5.072 3.148562 32.389082 -0.025495
2011-01-27 09:13:01 51°28.929 2°44.749 5.074 3.148035 32.382237 -0.025495
2011-01-27 09:13:06 51°28.946 2°44.738 5.0738 3.147719 32.38371 -0.025495
2011-01-27 09:13:11 51°28.963 2°44.727 5.071 3.147719 32.38371 -0.025495
2011-01-27 09:13:16 51°28.98 2°44.717 5.0723 3.147087 32.377356 -0.025495
2011-01-27 09:13:21 51°28.998 2°44.706 5.0662 3.146982 32.379537 -0.025495
2011-01-27 09:13:26 51°29.016 2°44.696 5.0667 3.14656 32.373892 -0.025495
2011-01-27 09:13:31 51°29.034 2°44.685 5.0654 3.146244 32.370292 -0.025495
2011-01-27 09:13:35 51°29.049 2°44.677 5.0673 3.145823 32.368027 -0.060319
2011-01-27 09:13:41 51°29.07 2°44.665 5.0639 3.145823 32.368027 -0.060319
2011-01-27 09:13:46 51°29.088 2°44.654 5.0672 3.145296 32.362027 -0.060319
2011-01-27 09:13:51 51°29.105 2°44.644 5.0672 3.14519 32.360827 -0.060319